Time,TemperatureF,DewpointF,PressureIn,WindDirection,WindDirectionDegrees,WindSpeedMPH,WindSpeedGustMPH,Humidity,HourlyPrecipIn,Conditions,Clouds,dailyrainin,SoftwareType,DateUTC
2013-08-22 00:00:00,81.3,46.9,29.82,NW,319,2.0,9.0,30,0.00,,CLR,0.00,VWS V14.01,2013-08-22 07:00:00,
2013-08-22 00:01:00,81.2,46.8,29.82,NW,324,1.0,9.0,30,0.00,,CLR,0.00,VWS V14.01,2013-08-22 07:01:00,
2013-08-22 00:02:00,81.1,46.8,29.82,NW,324,3.0,9.0,30,0.00,,CLR,0.00,VWS V14.01,2013-08-22 07:02:00,
2013-08-22 00:03:00,80.9,46.6,29.82,NNW,335,2.0,9.0,30,0.00,,CLR,0.00,VWS V14.01,2013-08-22 07:03:00,
2013-08-22 00:04:00,80.9,47.5,29.82,NNW,334,1.0,9.0,31,0.00,,CLR,0.00,VWS V14.01,2013-08-22 07:04:00,
2013-08-22 00:05:00,80.7,47.3,29.82,NW,325,2.0,9.0,31,0.00,,CLR,0.00,VWS V14.01,2013-08-22 07:05:00,
2013-08-22 00:06:00,80.6,47.2,29.82,NNW,329,3.0,9.0,31,0.00,,CLR,0.00,VWS V14.01,2013-08-22 07:06:00,
2013-08-22 00:07:00,80.5,47.1,29.82,NNW,333,1.0,2.0,31,0.00,,CLR,0.00,VWS V14.01,2013-08-22 07:07:00,
2013-08-22 00:08:00,80.5,47.1,29.82,NW,316,4.0,4.0,31,0.00,,CLR,0.00,VWS V14.01,2013-08-22 07:08:00,
2013-08-22 00:09:00,80.4,47.0,29.82,North,358,1.0,4.0,31,0.00,,CLR,0.00,VWS V14.01,2013-08-22 07:09:00,
2013-08-22 00:10:00,80.3,46.9,29.82,NW,323,1.0,4.0,31,0.00,,CLR,0.00,VWS V14.01,2013-08-22 07:10:00,
2013-08-22 00:11:00,80.3,46.9,29.82,NNW,335,2.0,4.0,31,0.00,,CLR,0.00,VWS V14.01,2013-08-22 07:11:00,
2013-08-22 00:13:00,80.2,46.9,29.82,NW,321,3.0,4.0,31,0.00,,CLR,0.00,VWS V14.01,2013-08-22 07:13:00,
2013-08-22 00:14:00,80.1,47.6,29.82,North,356,0.0,4.0,32,0.00,,CLR,0.00,VWS V14.01,2013-08-22 07:14:00,
2013-08-22 00:15:00,80.1,46.8,29.82,NW,326,0.0,4.0,31,0.00,,CLR,0.00,VWS V14.01,2013-08-22 07:15:00,
2013-08-22 00:16:00,80.0,47.5,29.82,NNW,329,0.0,4.0,32,0.00,,CLR,0.00,VWS V14.01,2013-08-22 07:16:00,
2013-08-22 00:18:00,79.9,47.4,29.82,NNW,338,1.0,4.0,32,0.00,,CLR,0.00,VWS V14.01,2013-08-22 07:18:00,
2013-08-22 00:19:00,79.9,47.4,29.82,NNW,339,0.0,4.0,32,0.00,,CLR,0.00,VWS V14.01,2013-08-22 07:19:00,
2013-08-22 00:20:00,79.8,47.3,29.82,NW,325,4.0,5.0,32,0.00,,CLR,0.00,VWS V14.01,2013-08-22 07:20:00,
2013-08-22 00:22:00,79.8,47.3,29.82,NW,325,2.0,5.0,32,0.00,,CLR,0.00,VWS V14.01,2013-08-22 07:22:00,
2013-08-22 00:23:00,79.8,46.5,29.82,North,0,1.0,5.0,31,0.00,,CLR,0.00,VWS V14.01,2013-08-22 07:23:00,
2013-08-22 00:24:00,79.7,46.4,29.82,North,9,3.0,5.0,31,0.00,,CLR,0.00,VWS V14.01,2013-08-22 07:24:00,
2013-08-22 00:25:00,79.7,46.4,29.82,NW,321,2.0,5.0,31,0.00,,CLR,0.00,VWS V14.01,2013-08-22 07:25:00,
2013-08-22 00:27:00,79.6,46.3,29.82,NNW,335,1.0,5.0,31,0.00,,CLR,0.00,VWS V14.01,2013-08-22 07:27:00,
2013-08-22 00:28:00,79.6,46.3,29.82,NE,44,3.0,5.0,31,0.00,,CLR,0.00,VWS V14.01,2013-08-22 07:28:00,
2013-08-22 00:29:00,79.6,46.3,29.82,NNE,23,0.0,5.0,31,0.00,,CLR,0.00,VWS V14.01,2013-08-22 07:29:00,
2013-08-22 00:30:00,79.6,46.3,29.82,NNW,334,0.0,5.0,31,0.00,,CLR,0.00,VWS V14.01,2013-08-22 07:30:00,
2013-08-22 00:32:00,79.6,46.3,29.82,NNW,329,3.0,5.0,31,0.00,,CLR,0.00,VWS V14.01,2013-08-22 07:32:00,
2013-08-22 00:33:00,79.6,46.3,29.82,NW,315,1.0,5.0,31,0.00,,CLR,0.00,VWS V14.01,2013-08-22 07:33:00,
2013-08-22 00:34:00,79.5,46.2,29.82,NW,322,1.0,5.0,31,0.00,,CLR,0.00,VWS V14.01,2013-08-22 07:34:00,
2013-08-22 00:35:00,79.5,46.2,29.82,NNW,338,1.0,5.0,31,0.00,,CLR,0.00,VWS V14.01,2013-08-22 07:35:00,
2013-08-22 00:36:00,79.5,46.2,29.82,NNW,334,2.0,5.0,31,0.00,,CLR,0.00,VWS V14.01,2013-08-22 07:36:00,
2013-08-22 00:37:00,79.5,46.2,29.82,NNW,342,2.0,3.0,31,0.00,,CLR,0.00,VWS V14.01,2013-08-22 07:37:00,
2013-08-22 00:38:00,79.5,46.2,29.82,NNW,330,2.0,4.0,31,0.00,,CLR,0.00,VWS V14.01,2013-08-22 07:38:00,
2013-08-22 00:39:00,79.5,46.2,29.82,NNW,330,0.0,4.0,31,0.00,,CLR,0.00,VWS V14.01,2013-08-22 07:39:00,
2013-08-22 00:40:00,79.5,46.2,29.82,NNW,333,2.0,7.0,31,0.00,,CLR,0.00,VWS V14.01,2013-08-22 07:40:00,
2013-08-22 00:41:00,79.5,45.4,29.82,NNW,338,4.0,7.0,30,0.00,,CLR,0.00,VWS V14.01,2013-08-22 07:41:00,
2013-08-22 00:42:00,79.5,45.4,29.82,NNW,343,1.0,7.0,30,0.00,,CLR,0.00,VWS V14.01,2013-08-22 07:42:00,
2013-08-22 00:44:00,79.5,45.4,29.82,NNW,329,3.0,7.0,30,0.00,,CLR,0.00,VWS V14.01,2013-08-22 07:44:00,
2013-08-22 00:45:00,79.5,45.4,29.82,NNW,345,1.0,7.0,30,0.00,,CLR,0.00,VWS V14.01,2013-08-22 07:45:00,
2013-08-22 00:46:00,79.6,45.5,29.82,NNE,13,0.0,7.0,30,0.00,,CLR,0.00,VWS V14.01,2013-08-22 07:46:00,
2013-08-22 00:47:00,79.6,45.5,29.82,NW,319,0.0,7.0,30,0.00,,CLR,0.00,VWS V14.01,2013-08-22 07:47:00,
2013-08-22 00:49:00,79.6,45.5,29.82,NNW,327,1.0,7.0,30,0.00,,CLR,0.00,VWS V14.01,2013-08-22 07:49:00,
2013-08-22 00:50:00,79.6,45.5,29.82,NNW,336,1.0,7.0,30,0.00,,CLR,0.00,VWS V14.01,2013-08-22 07:50:00,
2013-08-22 00:51:00,79.6,45.5,29.82,NNW,336,1.0,7.0,30,0.00,,CLR,0.00,VWS V14.01,2013-08-22 07:51:00,
2013-08-22 00:52:00,79.6,45.5,29.82,NNW,336,0.0,7.0,30,0.00,,CLR,0.00,VWS V14.01,2013-08-22 07:52:00,
2013-08-22 00:54:00,79.6,45.5,29.82,NNW,332,2.0,7.0,30,0.00,,CLR,0.00,VWS V14.01,2013-08-22 07:54:00,
2013-08-22 00:55:00,79.6,45.5,29.82,North,352,1.0,7.0,30,0.00,,CLR,0.00,VWS V14.01,2013-08-22 07:55:00,
2013-08-22 00:57:00,79.6,45.5,29.82,North,354,2.0,7.0,30,0.00,,CLR,0.00,VWS V14.01,2013-08-22 07:57:00,
2013-08-22 00:59:00,79.5,45.4,29.82,NNW,338,1.0,7.0,30,0.00,,CLR,0.00,VWS V14.01,2013-08-22 07:59:00,
2013-08-22 01:00:00,79.5,45.4,29.82,NNE,20,1.0,7.0,30,0.00,,CLR,0.00,VWS V14.01,2013-08-22 08:00:00,
2013-08-22 01:02:00,79.5,45.4,29.82,North,6,0.0,7.0,30,0.00,,CLR,0.00,VWS V14.01,2013-08-22 08:02:00,
2013-08-22 01:04:00,79.4,45.3,29.82,NNE,17,0.0,7.0,30,0.00,,CLR,0.00,VWS V14.01,2013-08-22 08:04:00,
2013-08-22 01:05:00,79.4,45.3,29.82,North,1,2.0,7.0,30,0.00,,CLR,0.00,VWS V14.01,2013-08-22 08:05:00,
2013-08-22 01:07:00,79.4,45.3,29.82,NNE,16,1.0,1.0,30,0.00,,CLR,0.00,VWS V14.01,2013-08-22 08:07:00,
2013-08-22 01:09:00,79.3,45.2,29.82,NW,324,2.0,3.0,30,0.00,,CLR,0.00,VWS V14.01,2013-08-22 08:09:00,
2013-08-22 01:10:00,79.3,45.2,29.82,NW,314,4.0,4.0,30,0.00,,CLR,0.00,VWS V14.01,2013-08-22 08:10:00,
2013-08-22 01:12:00,79.3,44.3,29.82,NW,323,2.0,4.0,29,0.00,,CLR,0.00,VWS V14.01,2013-08-22 08:12:00,
2013-08-22 01:14:00,79.3,45.2,29.82,NNW,334,0.0,4.0,30,0.00,,CLR,0.00,VWS V14.01,2013-08-22 08:14:00,
2013-08-22 01:15:00,79.3,45.2,29.82,NNW,334,0.0,4.0,30,0.00,,CLR,0.00,VWS V14.01,2013-08-22 08:15:00,
2013-08-22 01:16:00,79.2,45.1,29.82,NNW,334,0.0,4.0,30,0.00,,CLR,0.00,VWS V14.01,2013-08-22 08:16:00,
2013-08-22 01:17:00,79.2,45.1,29.82,NNW,334,0.0,4.0,30,0.00,,CLR,0.00,VWS V14.01,2013-08-22 08:17:00,
2013-08-22 01:20:00,79.2,45.1,29.82,NNE,27,0.0,4.0,30,0.00,,CLR,0.00,VWS V14.01,2013-08-22 08:20:00,
2013-08-22 01:21:00,79.2,45.1,29.82,NNE,27,0.0,4.0,30,0.00,,CLR,0.00,VWS V14.01,2013-08-22 08:21:00,
2013-08-22 01:22:00,79.1,45.0,29.82,NNE,27,0.0,4.0,30,0.00,,CLR,0.00,VWS V14.01,2013-08-22 08:22:00,
2013-08-22 01:25:00,79.1,45.9,29.82,NNE,27,1.0,4.0,31,0.00,,CLR,0.00,VWS V14.01,2013-08-22 08:25:00,
2013-08-22 01:26:00,79.0,45.0,29.82,NNE,27,0.0,4.0,30,0.00,,CLR,0.00,VWS V14.01,2013-08-22 08:26:00,
2013-08-22 01:27:00,79.0,45.0,29.82,NNE,27,0.0,4.0,30,0.00,,CLR,0.00,VWS V14.01,2013-08-22 08:27:00,
2013-08-22 01:30:00,78.9,44.9,29.82,North,350,1.0,4.0,30,0.00,,CLR,0.00,VWS V14.01,2013-08-22 08:30:00,
2013-08-22 01:31:00,78.9,44.9,29.82,North,349,2.0,4.0,30,0.00,,CLR,0.00,VWS V14.01,2013-08-22 08:31:00,
2013-08-22 01:32:00,78.8,44.8,29.82,NNW,330,0.0,4.0,30,0.00,,CLR,0.00,VWS V14.01,2013-08-22 08:32:00,
2013-08-22 01:33:00,78.7,44.7,29.82,NNW,337,2.0,4.0,30,0.00,,CLR,0.00,VWS V14.01,2013-08-22 08:33:00,
2013-08-22 01:35:00,78.7,44.7,29.82,NNW,335,0.0,4.0,30,0.00,,CLR,0.00,VWS V14.01,2013-08-22 08:35:00,
2013-08-22 01:36:00,78.7,44.7,29.82,NNW,335,1.0,4.0,30,0.00,,CLR,0.00,VWS V14.01,2013-08-22 08:36:00,
2013-08-22 01:38:00,78.6,44.6,29.82,North,351,0.0,2.0,30,0.00,,CLR,0.00,VWS V14.01,2013-08-22 08:38:00,
2013-08-22 01:40:00,78.5,44.5,29.82,NNW,340,2.0,3.0,30,0.00,,CLR,0.00,VWS V14.01,2013-08-22 08:40:00,
2013-08-22 01:41:00,78.5,43.6,29.82,NW,320,2.0,3.0,29,0.00,,CLR,0.00,VWS V14.01,2013-08-22 08:41:00,
2013-08-22 01:43:00,78.5,44.5,29.82,NW,320,1.0,3.0,30,0.00,,CLR,0.00,VWS V14.01,2013-08-22 08:43:00,
2013-08-22 01:45:00,78.4,44.4,29.82,NW,320,0.0,3.0,30,0.00,,CLR,0.00,VWS V14.01,2013-08-22 08:45:00,
2013-08-22 01:46:00,78.4,44.4,29.82,NW,320,0.0,3.0,30,0.00,,CLR,0.00,VWS V14.01,2013-08-22 08:46:00,
2013-08-22 01:48:00,78.4,44.4,29.82,NW,326,2.0,3.0,30,0.00,,CLR,0.00,VWS V14.01,2013-08-22 08:48:00,
2013-08-22 01:50:00,78.3,44.3,29.82,NW,326,3.0,3.0,30,0.00,,CLR,0.00,VWS V14.01,2013-08-22 08:50:00,
2013-08-22 01:51:00,78.3,44.3,29.82,NNW,327,3.0,3.0,30,0.00,,CLR,0.00,VWS V14.01,2013-08-22 08:51:00,
2013-08-22 01:53:00,78.3,43.5,29.82,NW,324,4.0,5.0,29,0.00,,CLR,0.00,VWS V14.01,2013-08-22 08:53:00,
2013-08-22 01:55:00,78.2,43.4,29.82,NW,324,2.0,5.0,29,0.00,,CLR,0.00,VWS V14.01,2013-08-22 08:55:00,
2013-08-22 01:56:00,78.2,43.4,29.82,NW,320,1.0,5.0,29,0.00,,CLR,0.00,VWS V14.01,2013-08-22 08:56:00,
2013-08-22 01:58:00,78.2,43.4,29.82,NW,323,1.0,5.0,29,0.00,,CLR,0.00,VWS V14.01,2013-08-22 08:58:00,
2013-08-22 01:59:00,78.2,43.4,29.82,NNW,337,0.0,5.0,29,0.00,,CLR,0.00,VWS V14.01,2013-08-22 08:59:00,
2013-08-22 02:00:00,78.5,43.6,29.82,NW,324,3.0,6.0,29,0.00,,CLR,0.00,VWS V14.01,2013-08-22 09:00:00,
2013-08-22 02:02:00,78.8,43.0,29.82,NW,316,3.0,6.0,28,0.00,,CLR,0.00,VWS V14.01,2013-08-22 09:02:00,
2013-08-22 02:03:00,79.3,43.4,29.82,NW,313,1.0,6.0,28,0.00,,CLR,0.00,VWS V14.01,2013-08-22 09:03:00,
2013-08-22 02:04:00,79.4,43.5,29.82,NW,312,4.0,6.0,28,0.00,,CLR,0.00,VWS V14.01,2013-08-22 09:04:00,
2013-08-22 02:06:00,79.6,42.7,29.82,NW,317,3.0,6.0,27,0.00,,CLR,0.00,VWS V14.01,2013-08-22 09:06:00,
2013-08-22 02:07:00,79.7,42.8,29.82,NNW,335,0.0,6.0,27,0.00,,CLR,0.00,VWS V14.01,2013-08-22 09:07:00,
2013-08-22 02:08:00,79.8,42.9,29.82,NNW,342,1.0,5.0,27,0.00,,CLR,0.00,VWS V14.01,2013-08-22 09:08:00,
2013-08-22 02:09:00,79.8,42.9,29.82,NNW,342,1.0,5.0,27,0.00,,CLR,0.00,VWS V14.01,2013-08-22 09:09:00,
2013-08-22 02:11:00,79.6,42.7,29.82,NNW,330,3.0,5.0,27,0.00,,CLR,0.00,VWS V14.01,2013-08-22 09:11:00,
2013-08-22 02:12:00,79.6,42.7,29.82,NW,308,4.0,6.0,27,0.00,,CLR,0.00,VWS V14.01,2013-08-22 09:12:00,
2013-08-22 02:14:00,79.4,42.5,29.82,NNW,330,1.0,6.0,27,0.00,,CLR,0.00,VWS V14.01,2013-08-22 09:14:00,
2013-08-22 02:16:00,79.2,42.4,29.82,NNW,336,3.0,6.0,27,0.00,,CLR,0.00,VWS V14.01,2013-08-22 09:16:00,
2013-08-22 02:17:00,79.1,42.3,29.82,NW,312,4.0,6.0,27,0.00,,CLR,0.00,VWS V14.01,2013-08-22 09:17:00,
2013-08-22 02:19:00,79.0,42.2,29.82,NW,325,1.0,6.0,27,0.00,,CLR,0.00,VWS V14.01,2013-08-22 09:19:00,
2013-08-22 02:21:00,78.9,43.1,29.82,NW,317,3.0,6.0,28,0.00,,CLR,0.00,VWS V14.01,2013-08-22 09:21:00,
2013-08-22 02:22:00,78.8,43.0,29.81,NW,326,3.0,6.0,28,0.00,,CLR,0.00,VWS V14.01,2013-08-22 09:22:00,
2013-08-22 02:24:00,78.6,42.8,29.81,NW,319,4.0,6.0,28,0.00,,CLR,0.00,VWS V14.01,2013-08-22 09:24:00,
2013-08-22 02:26:00,78.5,43.6,29.81,WNW,301,2.0,6.0,29,0.00,,CLR,0.00,VWS V14.01,2013-08-22 09:26:00,
2013-08-22 02:27:00,78.4,43.5,29.81,NNW,327,2.0,6.0,29,0.00,,CLR,0.00,VWS V14.01,2013-08-22 09:27:00,
2013-08-22 02:29:00,78.3,43.5,29.81,NW,314,2.0,6.0,29,0.00,,CLR,0.00,VWS V14.01,2013-08-22 09:29:00,
2013-08-22 02:32:00,78.1,44.2,29.81,NW,321,2.0,6.0,30,0.00,,CLR,0.00,VWS V14.01,2013-08-22 09:32:00,
2013-08-22 02:34:00,78.0,44.1,29.81,NW,309,2.0,6.0,30,0.00,,CLR,0.00,VWS V14.01,2013-08-22 09:34:00,
2013-08-22 02:37:00,77.8,43.9,29.82,WNW,292,0.0,3.0,30,0.00,,CLR,0.00,VWS V14.01,2013-08-22 09:37:00,
2013-08-22 02:39:00,77.6,43.7,29.82,NW,314,4.0,4.0,30,0.00,,CLR,0.00,VWS V14.01,2013-08-22 09:39:00,
2013-08-22 02:42:00,77.5,44.5,29.82,WNW,300,3.0,4.0,31,0.00,,CLR,0.00,VWS V14.01,2013-08-22 09:42:00,
2013-08-22 02:44:00,77.3,44.3,29.82,NW,308,1.0,5.0,31,0.00,,CLR,0.00,VWS V14.01,2013-08-22 09:44:00,
2013-08-22 02:45:00,77.3,45.2,29.82,NW,307,2.0,5.0,32,0.00,,CLR,0.00,VWS V14.01,2013-08-22 09:45:00,
2013-08-22 02:47:00,77.1,45.0,29.82,WNW,290,2.0,6.0,32,0.00,,CLR,0.00,VWS V14.01,2013-08-22 09:47:00,
2013-08-22 02:48:00,77.1,45.0,29.82,WNW,291,2.0,6.0,32,0.00,,CLR,0.00,VWS V14.01,2013-08-22 09:48:00,
2013-08-22 02:49:00,76.9,44.8,29.82,NW,304,3.0,6.0,32,0.00,,CLR,0.00,VWS V14.01,2013-08-22 09:49:00,
2013-08-22 02:50:00,76.9,44.8,29.82,NW,304,3.0,6.0,32,0.00,,CLR,0.00,VWS V14.01,2013-08-22 09:50:00,
2013-08-22 02:52:00,76.7,44.7,29.83,NW,316,3.0,6.0,32,0.00,,CLR,0.00,VWS V14.01,2013-08-22 09:52:00,
2013-08-22 02:53:00,76.7,44.7,29.83,WNW,295,5.0,6.0,32,0.00,,CLR,0.00,VWS V14.01,2013-08-22 09:53:00,
2013-08-22 02:55:00,76.6,45.4,29.83,WNW,290,3.0,6.0,33,0.00,,CLR,0.00,VWS V14.01,2013-08-22 09:55:00,
2013-08-22 02:57:00,76.4,45.2,29.83,NW,314,2.0,6.0,33,0.00,,CLR,0.00,VWS V14.01,2013-08-22 09:57:00,
2013-08-22 02:58:00,76.3,45.9,29.83,NW,318,3.0,6.0,34,0.00,,CLR,0.00,VWS V14.01,2013-08-22 09:58:00,
2013-08-22 03:00:00,76.2,45.8,29.83,NW,316,2.0,6.0,34,0.00,,CLR,0.00,VWS V14.01,2013-08-22 10:00:00,
2013-08-22 03:02:00,76.0,45.6,29.83,WNW,283,3.0,6.0,34,0.00,,CLR,0.00,VWS V14.01,2013-08-22 10:02:00,
2013-08-22 03:03:00,76.0,45.6,29.83,NW,322,4.0,6.0,34,0.00,,CLR,0.00,VWS V14.01,2013-08-22 10:03:00,
2013-08-22 03:05:00,75.9,45.5,29.83,WNW,296,3.0,6.0,34,0.00,,CLR,0.00,VWS V14.01,2013-08-22 10:05:00,
2013-08-22 03:07:00,75.8,46.2,29.83,NNW,328,3.0,5.0,35,0.00,,CLR,0.00,VWS V14.01,2013-08-22 10:07:00,
2013-08-22 03:08:00,75.7,46.1,29.83,WNW,283,2.0,5.0,35,0.00,,CLR,0.00,VWS V14.01,2013-08-22 10:08:00,
2013-08-22 03:10:00,75.6,46.0,29.83,WNW,295,3.0,6.0,35,0.00,,CLR,0.00,VWS V14.01,2013-08-22 10:10:00,
2013-08-22 03:12:00,75.5,46.0,29.83,NW,308,1.0,6.0,35,0.00,,CLR,0.00,VWS V14.01,2013-08-22 10:12:00,
2013-08-22 03:14:00,75.4,45.9,29.83,NNW,327,5.0,6.0,35,0.00,,CLR,0.00,VWS V14.01,2013-08-22 10:14:00,
2013-08-22 03:15:00,75.4,45.9,29.83,NW,309,1.0,6.0,35,0.00,,CLR,0.00,VWS V14.01,2013-08-22 10:15:00,
2013-08-22 03:17:00,75.2,46.4,29.83,NW,309,0.0,6.0,36,0.00,,CLR,0.00,VWS V14.01,2013-08-22 10:17:00,
2013-08-22 03:19:00,75.2,46.4,29.83,NW,309,1.0,6.0,36,0.00,,CLR,0.00,VWS V14.01,2013-08-22 10:19:00,
2013-08-22 03:20:00,75.1,46.3,29.83,NW,311,1.0,6.0,36,0.00,,CLR,0.00,VWS V14.01,2013-08-22 10:20:00,
2013-08-22 03:21:00,75.1,46.3,29.83,WNW,291,2.0,6.0,36,0.00,,CLR,0.00,VWS V14.01,2013-08-22 10:21:00,
2013-08-22 03:22:00,75.0,46.3,29.83,WNW,293,0.0,6.0,36,0.00,,CLR,0.00,VWS V14.01,2013-08-22 10:22:00,
2013-08-22 03:24:00,74.9,46.2,29.83,West,267,2.0,6.0,36,0.00,,CLR,0.00,VWS V14.01,2013-08-22 10:24:00,
2013-08-22 03:25:00,74.9,46.9,29.83,West,268,1.0,6.0,37,0.00,,CLR,0.00,VWS V14.01,2013-08-22 10:25:00,
2013-08-22 03:26:00,74.8,46.8,29.83,West,268,2.0,6.0,37,0.00,,CLR,0.00,VWS V14.01,2013-08-22 10:26:00,
2013-08-22 03:27:00,74.7,46.0,29.83,West,266,2.0,6.0,36,0.00,,CLR,0.00,VWS V14.01,2013-08-22 10:27:00,
2013-08-22 03:29:00,74.5,46.5,29.83,NW,316,3.0,6.0,37,0.00,,CLR,0.00,VWS V14.01,2013-08-22 10:29:00,
2013-08-22 03:30:00,74.4,46.5,29.83,WNW,285,4.0,6.0,37,0.00,,CLR,0.00,VWS V14.01,2013-08-22 10:30:00,
2013-08-22 03:31:00,74.4,46.5,29.83,WNW,290,2.0,6.0,37,0.00,,CLR,0.00,VWS V14.01,2013-08-22 10:31:00,
2013-08-22 03:32:00,74.3,46.4,29.83,NW,316,2.0,6.0,37,0.00,,CLR,0.00,VWS V14.01,2013-08-22 10:32:00,
2013-08-22 03:34:00,74.2,47.0,29.83,West,271,4.0,6.0,38,0.00,,CLR,0.00,VWS V14.01,2013-08-22 10:34:00,
2013-08-22 03:35:00,74.1,46.9,29.83,West,278,4.0,6.0,38,0.00,,CLR,0.00,VWS V14.01,2013-08-22 10:35:00,
2013-08-22 03:36:00,74.1,46.9,29.83,West,266,5.0,6.0,38,0.00,,CLR,0.00,VWS V14.01,2013-08-22 10:36:00,
2013-08-22 03:38:00,73.9,46.7,29.83,WNW,289,4.0,7.0,38,0.00,,CLR,0.00,VWS V14.01,2013-08-22 10:38:00,
2013-08-22 03:40:00,73.7,47.2,29.83,WNW,297,2.0,7.0,39,0.00,,CLR,0.00,VWS V14.01,2013-08-22 10:40:00,
2013-08-22 03:41:00,73.7,47.2,29.83,West,281,4.0,7.0,39,0.00,,CLR,0.00,VWS V14.01,2013-08-22 10:41:00,
2013-08-22 03:43:00,73.6,47.1,29.83,WSW,247,3.0,7.0,39,0.00,,CLR,0.00,VWS V14.01,2013-08-22 10:43:00,
2013-08-22 03:45:00,73.4,47.6,29.83,WNW,292,2.0,7.0,40,0.00,,CLR,0.00,VWS V14.01,2013-08-22 10:45:00,
2013-08-22 03:46:00,73.3,47.5,29.83,WNW,292,2.0,7.0,40,0.00,,CLR,0.00,VWS V14.01,2013-08-22 10:46:00,
2013-08-22 03:48:00,73.2,47.5,29.83,West,274,3.0,7.0,40,0.00,,CLR,0.00,VWS V14.01,2013-08-22 10:48:00,
2013-08-22 05:27:00,71.5,48.5,29.85,WNW,300,0.0,1.0,44,0.00,,CLR,0.00,VWS V14.01,2013-08-22 12:27:00,
2013-08-22 05:28:00,71.4,49.0,29.85,WNW,300,0.0,1.0,45,0.00,,CLR,0.00,VWS V14.01,2013-08-22 12:28:00,
2013-08-22 05:32:00,71.3,48.9,29.85,WNW,300,0.0,1.0,45,0.00,,CLR,0.00,VWS V14.01,2013-08-22 12:32:00,
2013-08-22 05:33:00,71.3,48.9,29.85,WNW,300,0.0,1.0,45,0.00,,CLR,0.00,VWS V14.01,2013-08-22 12:33:00,
2013-08-22 05:37:00,71.1,48.7,29.85,WNW,300,0.0,0.0,45,0.00,,CLR,0.00,VWS V14.01,2013-08-22 12:37:00,
2013-08-22 05:38:00,71.1,48.7,29.85,WNW,300,0.0,0.0,45,0.00,,CLR,0.00,VWS V14.01,2013-08-22 12:38:00,
2013-08-22 05:42:00,71.0,48.6,29.85,WNW,300,0.0,0.0,45,0.00,,CLR,0.00,VWS V14.01,2013-08-22 12:42:00,
2013-08-22 05:43:00,71.0,48.6,29.85,WNW,300,0.0,0.0,45,0.00,,CLR,0.00,VWS V14.01,2013-08-22 12:43:00,
2013-08-22 05:44:00,71.0,48.6,29.85,WNW,300,0.0,0.0,45,0.00,,CLR,0.00,VWS V14.01,2013-08-22 12:44:00,
2013-08-22 05:47:00,70.8,49.0,29.85,WNW,300,0.0,0.0,46,0.00,,CLR,0.00,VWS V14.01,2013-08-22 12:47:00,
2013-08-22 05:48:00,70.8,49.0,29.85,WNW,300,0.0,0.0,46,0.00,,CLR,0.00,VWS V14.01,2013-08-22 12:48:00,
2013-08-22 05:49:00,70.8,49.0,29.85,WNW,300,0.0,0.0,46,0.00,,CLR,0.00,VWS V14.01,2013-08-22 12:49:00,
2013-08-22 05:52:00,70.7,48.9,29.86,WNW,300,0.0,0.0,46,0.00,,CLR,0.00,VWS V14.01,2013-08-22 12:52:00,
2013-08-22 05:53:00,70.7,48.9,29.86,WNW,300,0.0,0.0,46,0.00,,CLR,0.00,VWS V14.01,2013-08-22 12:53:00,
2013-08-22 05:54:00,70.7,48.9,29.86,WNW,300,0.0,0.0,46,0.00,,CLR,0.00,VWS V14.01,2013-08-22 12:54:00,
2013-08-22 05:57:00,70.6,49.4,29.86,WNW,300,0.0,0.0,47,0.00,,CLR,0.00,VWS V14.01,2013-08-22 12:57:00,
2013-08-22 05:58:00,70.6,49.4,29.86,WNW,300,0.0,0.0,47,0.00,,CLR,0.00,VWS V14.01,2013-08-22 12:58:00,
2013-08-22 05:59:00,70.6,49.4,29.86,WNW,300,0.0,0.0,47,0.00,,CLR,0.00,VWS V14.01,2013-08-22 12:59:00,
2013-08-22 06:00:00,70.6,49.4,29.86,WNW,300,0.0,1.0,47,0.00,,CLR,0.00,VWS V14.01,2013-08-22 13:00:00,
2013-08-22 06:03:00,70.5,49.9,29.86,WNW,300,0.0,1.0,48,0.00,,CLR,0.00,VWS V14.01,2013-08-22 13:03:00,
2013-08-22 06:04:00,70.5,49.9,29.86,WNW,300,0.0,1.0,48,0.00,,CLR,0.00,VWS V14.01,2013-08-22 13:04:00,
2013-08-22 06:05:00,70.4,49.8,29.86,WNW,300,0.0,1.0,48,0.00,,CLR,0.00,VWS V14.01,2013-08-22 13:05:00,
2013-08-22 06:08:00,70.3,50.3,29.86,WNW,300,0.0,0.0,49,0.00,,CLR,0.00,VWS V14.01,2013-08-22 13:08:00,
2013-08-22 06:09:00,70.3,50.3,29.86,WNW,300,0.0,0.0,49,0.00,,CLR,0.00,VWS V14.01,2013-08-22 13:09:00,
2013-08-22 06:10:00,70.3,49.7,29.86,WNW,300,0.0,0.0,48,0.00,,CLR,0.00,VWS V14.01,2013-08-22 13:10:00,
2013-08-22 06:14:00,70.2,49.6,29.86,WNW,300,0.0,1.0,48,0.00,,CLR,0.00,VWS V14.01,2013-08-22 13:14:00,
2013-08-22 06:16:00,70.1,50.1,29.86,WNW,300,0.0,1.0,49,0.00,,CLR,0.00,VWS V14.01,2013-08-22 13:16:00,
2013-08-22 06:19:00,70.0,50.0,29.86,WNW,300,0.0,1.0,49,0.00,,CLR,0.00,VWS V14.01,2013-08-22 13:19:00,
2013-08-22 06:20:00,70.0,50.0,29.86,WNW,300,0.0,1.0,49,0.00,,CLR,0.00,VWS V14.01,2013-08-22 13:20:00,
2013-08-22 06:21:00,69.9,49.9,29.86,WNW,300,0.0,1.0,49,0.00,,CLR,0.00,VWS V14.01,2013-08-22 13:21:00,
2013-08-22 06:24:00,69.8,49.8,29.87,WNW,300,0.0,1.0,49,0.00,,CLR,0.00,VWS V14.01,2013-08-22 13:24:00,
2013-08-22 06:25:00,69.7,50.2,29.87,WNW,300,0.0,1.0,50,0.00,,CLR,0.00,VWS V14.01,2013-08-22 13:25:00,
2013-08-22 06:26:00,69.7,50.8,29.87,WNW,300,0.0,1.0,51,0.00,,CLR,0.00,VWS V14.01,2013-08-22 13:26:00,
2013-08-22 06:29:00,69.6,50.7,29.87,WNW,300,0.0,1.0,51,0.00,,CLR,0.00,VWS V14.01,2013-08-22 13:29:00,
2013-08-22 06:30:00,69.6,50.7,29.87,WNW,300,0.0,1.0,51,0.00,,CLR,0.00,VWS V14.01,2013-08-22 13:30:00,
2013-08-22 06:31:00,69.6,50.7,29.87,WNW,300,0.0,1.0,51,0.00,,CLR,0.00,VWS V14.01,2013-08-22 13:31:00,
2013-08-22 06:34:00,69.5,51.1,29.87,SSW,212,2.0,3.0,52,0.00,,CLR,0.00,VWS V14.01,2013-08-22 13:34:00,
2013-08-22 06:35:00,69.5,51.1,29.87,SSW,212,0.0,3.0,52,0.00,,CLR,0.00,VWS V14.01,2013-08-22 13:35:00,
2013-08-22 06:36:00,69.5,51.1,29.87,SSW,212,0.0,3.0,52,0.00,,CLR,0.00,VWS V14.01,2013-08-22 13:36:00,
2013-08-22 06:39:00,69.4,51.0,29.87,SSW,212,0.0,1.0,52,0.00,,CLR,0.00,VWS V14.01,2013-08-22 13:39:00,
2013-08-22 06:40:00,69.4,51.5,29.87,SSW,212,1.0,1.0,53,0.00,,CLR,0.00,VWS V14.01,2013-08-22 13:40:00,
2013-08-22 06:41:00,69.4,51.5,29.87,SSW,212,0.0,1.0,53,0.00,,CLR,0.00,VWS V14.01,2013-08-22 13:41:00,
2013-08-22 06:44:00,69.4,51.5,29.87,SSW,212,0.0,1.0,53,0.00,,CLR,0.00,VWS V14.01,2013-08-22 13:44:00,
2013-08-22 06:45:00,69.4,51.5,29.87,SSW,212,0.0,1.0,53,0.00,,CLR,0.00,VWS V14.01,2013-08-22 13:45:00,
2013-08-22 06:46:00,69.4,52.0,29.87,SSW,212,0.0,1.0,54,0.00,,CLR,0.00,VWS V14.01,2013-08-22 13:46:00,
2013-08-22 06:49:00,69.4,52.0,29.87,SSW,212,0.0,1.0,54,0.00,,CLR,0.00,VWS V14.01,2013-08-22 13:49:00,
2013-08-22 06:50:00,69.4,51.5,29.87,SSW,212,0.0,1.0,53,0.00,,CLR,0.00,VWS V14.01,2013-08-22 13:50:00,
2013-08-22 06:51:00,69.4,51.0,29.87,SSW,212,0.0,1.0,52,0.00,,CLR,0.00,VWS V14.01,2013-08-22 13:51:00,
2013-08-22 06:54:00,69.5,51.6,29.87,SSW,212,0.0,1.0,53,0.00,,CLR,0.00,VWS V14.01,2013-08-22 13:54:00,
2013-08-22 06:55:00,69.5,51.6,29.87,SSW,212,0.0,1.0,53,0.00,,CLR,0.00,VWS V14.01,2013-08-22 13:55:00,
2013-08-22 06:56:00,69.5,51.6,29.87,SSW,212,0.0,1.0,53,0.00,,CLR,0.00,VWS V14.01,2013-08-22 13:56:00,
2013-08-22 06:59:00,69.5,51.6,29.87,SSW,212,0.0,1.0,53,0.00,,CLR,0.00,VWS V14.01,2013-08-22 13:59:00,
2013-08-22 07:00:00,69.5,51.6,29.87,SSW,212,0.0,1.0,53,0.00,,CLR,0.00,VWS V14.01,2013-08-22 14:00:00,
2013-08-22 07:01:00,69.5,51.6,29.87,SSW,212,0.0,1.0,53,0.00,,CLR,0.00,VWS V14.01,2013-08-22 14:01:00,
2013-08-22 07:04:00,69.8,52.4,29.87,SSW,212,0.0,1.0,54,0.00,,CLR,0.00,VWS V14.01,2013-08-22 14:04:00,
2013-08-22 07:05:00,69.8,51.4,29.87,SSW,212,0.0,1.0,52,0.00,,CLR,0.00,VWS V14.01,2013-08-22 14:05:00,
2013-08-22 07:06:00,69.9,51.5,29.88,SSW,212,0.0,1.0,52,0.00,,CLR,0.00,VWS V14.01,2013-08-22 14:06:00,
2013-08-22 07:09:00,70.1,52.7,29.88,SSW,212,0.0,0.0,54,0.00,,CLR,0.00,VWS V14.01,2013-08-22 14:09:00,
2013-08-22 07:10:00,70.1,51.7,29.88,SSW,212,0.0,0.0,52,0.00,,CLR,0.00,VWS V14.01,2013-08-22 14:10:00,
2013-08-22 07:11:00,70.1,52.2,29.88,SSW,212,0.0,0.0,53,0.00,,CLR,0.00,VWS V14.01,2013-08-22 14:11:00,
2013-08-22 07:15:00,70.2,52.3,29.88,SSW,212,0.0,1.0,53,0.00,,CLR,0.00,VWS V14.01,2013-08-22 14:15:00,
2013-08-22 07:16:00,70.3,52.4,29.88,SSW,212,0.0,1.0,53,0.00,,CLR,0.00,VWS V14.01,2013-08-22 14:16:00,
2013-08-22 07:17:00,70.3,52.4,29.88,SSW,212,0.0,1.0,53,0.00,,CLR,0.00,VWS V14.01,2013-08-22 14:17:00,
2013-08-22 07:20:00,70.3,52.4,29.88,SSW,212,0.0,1.0,53,0.00,,CLR,0.00,VWS V14.01,2013-08-22 14:20:00,
2013-08-22 07:21:00,70.4,53.0,29.87,SSW,212,0.0,1.0,54,0.00,,CLR,0.00,VWS V14.01,2013-08-22 14:21:00,
2013-08-22 07:22:00,70.4,53.0,29.87,SSW,212,0.0,1.0,54,0.00,,CLR,0.00,VWS V14.01,2013-08-22 14:22:00,
2013-08-22 07:25:00,70.5,53.1,29.87,SSW,212,0.0,1.0,54,0.00,,CLR,0.00,VWS V14.01,2013-08-22 14:25:00,
2013-08-22 07:26:00,70.6,53.2,29.87,SSW,212,0.0,1.0,54,0.00,,CLR,0.00,VWS V14.01,2013-08-22 14:26:00,
2013-08-22 07:27:00,70.6,53.2,29.87,SSW,212,0.0,1.0,54,0.00,,CLR,0.00,VWS V14.01,2013-08-22 14:27:00,
2013-08-22 07:30:00,70.7,52.8,29.87,SSW,212,0.0,1.0,53,0.00,,CLR,0.00,VWS V14.01,2013-08-22 14:30:00,
2013-08-22 07:32:00,70.8,52.8,29.87,SSW,212,0.0,1.0,53,0.00,,CLR,0.00,VWS V14.01,2013-08-22 14:32:00,
2013-08-22 07:35:00,70.9,51.9,29.87,SSW,212,0.0,1.0,51,0.00,,CLR,0.00,VWS V14.01,2013-08-22 14:35:00,
2013-08-22 07:37:00,71.0,52.0,29.87,SSW,212,0.0,0.0,51,0.00,,CLR,0.00,VWS V14.01,2013-08-22 14:37:00,
2013-08-22 07:40:00,71.1,52.1,29.87,SSW,212,0.0,0.0,51,0.00,,CLR,0.00,VWS V14.01,2013-08-22 14:40:00,
2013-08-22 07:41:00,71.1,52.1,29.87,SSW,212,0.0,0.0,51,0.00,,CLR,0.00,VWS V14.01,2013-08-22 14:41:00,
2013-08-22 07:42:00,71.2,52.2,29.87,SSW,212,0.0,0.0,51,0.00,,CLR,0.00,VWS V14.01,2013-08-22 14:42:00,
2013-08-22 07:45:00,71.5,52.4,29.87,SSW,212,1.0,1.0,51,0.00,,CLR,0.00,VWS V14.01,2013-08-22 14:45:00,
2013-08-22 07:46:00,71.5,52.4,29.87,SSW,212,0.0,1.0,51,0.00,,CLR,0.00,VWS V14.01,2013-08-22 14:46:00,
2013-08-22 07:47:00,71.7,52.1,29.87,SSW,212,0.0,1.0,50,0.00,,CLR,0.00,VWS V14.01,2013-08-22 14:47:00,
2013-08-22 07:48:00,71.7,52.6,29.87,SSW,212,0.0,1.0,51,0.00,,CLR,0.00,VWS V14.01,2013-08-22 14:48:00,
2013-08-22 07:50:00,71.9,52.3,29.87,SSW,212,0.0,1.0,50,0.00,,CLR,0.00,VWS V14.01,2013-08-22 14:50:00,
2013-08-22 07:51:00,71.9,52.3,29.87,SSW,212,0.0,1.0,50,0.00,,CLR,0.00,VWS V14.01,2013-08-22 14:51:00,
2013-08-22 07:52:00,72.1,52.5,29.88,SSW,212,0.0,1.0,50,0.00,,CLR,0.00,VWS V14.01,2013-08-22 14:52:00,
2013-08-22 07:53:00,72.1,52.5,29.88,SSW,212,0.0,1.0,50,0.00,,CLR,0.00,VWS V14.01,2013-08-22 14:53:00,
2013-08-22 07:55:00,72.3,52.1,29.88,SSW,212,0.0,1.0,49,0.00,,CLR,0.00,VWS V14.01,2013-08-22 14:55:00,
2013-08-22 07:56:00,72.4,52.2,29.88,SSW,212,0.0,1.0,49,0.00,,CLR,0.00,VWS V14.01,2013-08-22 14:56:00,
2013-08-22 07:57:00,72.5,52.3,29.88,SSW,212,0.0,1.0,49,0.00,,CLR,0.00,VWS V14.01,2013-08-22 14:57:00,
2013-08-22 07:58:00,72.6,52.4,29.88,SSW,212,0.0,1.0,49,0.00,,CLR,0.00,VWS V14.01,2013-08-22 14:58:00,
2013-08-22 08:00:00,72.8,52.5,29.88,West,275,0.0,2.0,49,0.00,,CLR,0.00,VWS V14.01,2013-08-22 15:00:00,
2013-08-22 08:01:00,72.9,52.6,29.88,WNW,298,2.0,2.0,49,0.00,,CLR,0.00,VWS V14.01,2013-08-22 15:01:00,
2013-08-22 08:02:00,73.0,52.2,29.88,NW,323,3.0,3.0,48,0.00,,CLR,0.00,VWS V14.01,2013-08-22 15:02:00,
2013-08-22 08:03:00,73.1,52.3,29.88,NW,324,3.0,3.0,48,0.00,,CLR,0.00,VWS V14.01,2013-08-22 15:03:00,
2013-08-22 08:06:00,73.4,52.5,29.88,North,6,0.0,3.0,48,0.00,,CLR,0.00,VWS V14.01,2013-08-22 15:06:00,
2013-08-22 08:07:00,73.5,52.6,29.88,NW,319,3.0,4.0,48,0.00,,CLR,0.00,VWS V14.01,2013-08-22 15:07:00,
2013-08-22 08:08:00,73.5,52.1,29.88,NW,319,1.0,4.0,47,0.00,,CLR,0.00,VWS V14.01,2013-08-22 15:08:00,
2013-08-22 08:11:00,73.7,52.8,29.88,WNW,297,2.0,4.0,48,0.00,,CLR,0.00,VWS V14.01,2013-08-22 15:11:00,
2013-08-22 08:13:00,73.7,52.2,29.88,NW,310,4.0,4.0,47,0.00,,CLR,0.00,VWS V14.01,2013-08-22 15:13:00,
2013-08-22 08:16:00,73.8,52.3,29.88,NNW,332,2.0,6.0,47,0.00,,CLR,0.00,VWS V14.01,2013-08-22 15:16:00,
2013-08-22 08:18:00,73.8,52.3,29.88,NW,312,5.0,6.0,47,0.00,,CLR,0.00,VWS V14.01,2013-08-22 15:18:00,
2013-08-22 08:21:00,73.8,52.3,29.88,NW,324,3.0,6.0,47,0.00,,CLR,0.00,VWS V14.01,2013-08-22 15:21:00,
2013-08-22 08:23:00,73.9,52.4,29.88,NW,315,2.0,6.0,47,0.00,,CLR,0.00,VWS V14.01,2013-08-22 15:23:00,
2013-08-22 08:26:00,74.0,52.5,29.88,NW,322,2.0,6.0,47,0.00,,CLR,0.00,VWS V14.01,2013-08-22 15:26:00,
2013-08-22 08:28:00,74.0,52.5,29.88,NW,321,2.0,6.0,47,0.00,,CLR,0.00,VWS V14.01,2013-08-22 15:28:00,
2013-08-22 08:32:00,74.1,52.6,29.88,NW,319,5.0,6.0,47,0.00,,CLR,0.00,VWS V14.01,2013-08-22 15:32:00,
2013-08-22 08:33:00,74.1,52.0,29.88,WNW,288,3.0,6.0,46,0.00,,CLR,0.00,VWS V14.01,2013-08-22 15:33:00,
2013-08-22 08:34:00,74.2,52.7,29.88,NNW,335,3.0,6.0,47,0.00,,CLR,0.00,VWS V14.01,2013-08-22 15:34:00,
2013-08-22 08:37:00,74.1,52.0,29.88,WNW,300,2.0,6.0,46,0.00,,CLR,0.00,VWS V14.01,2013-08-22 15:37:00,
2013-08-22 08:38:00,74.2,52.7,29.88,NW,326,4.0,5.0,47,0.00,,CLR,0.00,VWS V14.01,2013-08-22 15:38:00,
2013-08-22 08:39:00,74.2,52.1,29.88,NW,311,4.0,5.0,46,0.00,,CLR,0.00,VWS V14.01,2013-08-22 15:39:00,
2013-08-22 08:42:00,74.2,52.1,29.88,NNW,347,1.0,5.0,46,0.00,,CLR,0.00,VWS V14.01,2013-08-22 15:42:00,
2013-08-22 08:44:00,74.3,52.2,29.88,NW,325,2.0,5.0,46,0.00,,CLR,0.00,VWS V14.01,2013-08-22 15:44:00,
2013-08-22 08:47:00,74.6,53.1,29.88,NNE,17,2.0,5.0,47,0.00,,CLR,0.00,VWS V14.01,2013-08-22 15:47:00,
2013-08-22 08:49:00,74.7,53.2,29.88,NNE,12,1.0,5.0,47,0.00,,CLR,0.00,VWS V14.01,2013-08-22 15:49:00,
2013-08-22 08:52:00,74.9,52.2,29.88,NW,321,4.0,6.0,45,0.00,,CLR,0.00,VWS V14.01,2013-08-22 15:52:00,
2013-08-22 08:54:00,75.0,52.2,29.88,WNW,292,3.0,6.0,45,0.00,,CLR,0.00,VWS V14.01,2013-08-22 15:54:00,
2013-08-22 08:57:00,75.1,52.3,29.88,NNW,329,3.0,6.0,45,0.00,,CLR,0.00,VWS V14.01,2013-08-22 15:57:00,
2013-08-22 08:59:00,75.1,52.3,29.88,WNW,284,0.0,6.0,45,0.00,,CLR,0.00,VWS V14.01,2013-08-22 15:59:00,
2013-08-22 09:00:00,75.1,52.3,29.88,WNW,284,2.0,6.0,45,0.00,,CLR,0.00,VWS V14.01,2013-08-22 16:00:00,
2013-08-22 09:02:00,75.2,52.4,29.88,NNW,328,2.0,6.0,45,0.00,,CLR,0.00,VWS V14.01,2013-08-22 16:02:00,
2013-08-22 09:04:00,75.3,51.9,29.88,NW,325,3.0,6.0,44,0.00,,CLR,0.00,VWS V14.01,2013-08-22 16:04:00,
2013-08-22 09:05:00,75.3,51.9,29.88,NW,325,1.0,6.0,44,0.00,,CLR,0.00,VWS V14.01,2013-08-22 16:05:00,
2013-08-22 09:07:00,75.3,52.5,29.88,North,354,0.0,1.0,45,0.00,,CLR,0.00,VWS V14.01,2013-08-22 16:07:00,
2013-08-22 09:09:00,75.5,52.1,29.88,NNE,20,2.0,3.0,44,0.00,,CLR,0.00,VWS V14.01,2013-08-22 16:09:00,
2013-08-22 09:10:00,75.5,52.7,29.88,NW,323,3.0,6.0,45,0.00,,CLR,0.00,VWS V14.01,2013-08-22 16:10:00,
2013-08-22 09:12:00,75.6,52.8,29.88,West,281,2.0,6.0,45,0.00,,CLR,0.00,VWS V14.01,2013-08-22 16:12:00,
2013-08-22 09:13:00,75.6,52.8,29.88,West,281,3.0,6.0,45,0.00,,CLR,0.00,VWS V14.01,2013-08-22 16:13:00,
2013-08-22 09:14:00,75.7,52.9,29.88,NW,324,4.0,6.0,45,0.00,,CLR,0.00,VWS V14.01,2013-08-22 16:14:00,
2013-08-22 09:15:00,75.7,52.9,29.88,NW,311,1.0,6.0,45,0.00,,CLR,0.00,VWS V14.01,2013-08-22 16:15:00,
2013-08-22 09:17:00,75.8,53.0,29.88,NW,321,3.0,6.0,45,0.00,,CLR,0.00,VWS V14.01,2013-08-22 16:17:00,
2013-08-22 09:18:00,75.8,53.0,29.88,WNW,283,4.0,6.0,45,0.00,,CLR,0.00,VWS V14.01,2013-08-22 16:18:00,
2013-08-22 09:19:00,75.9,53.1,29.88,West,278,3.0,6.0,45,0.00,,CLR,0.00,VWS V14.01,2013-08-22 16:19:00,
2013-08-22 09:20:00,75.9,53.1,29.88,West,271,1.0,6.0,45,0.00,,CLR,0.00,VWS V14.01,2013-08-22 16:20:00,
2013-08-22 09:22:00,76.0,53.2,29.88,NW,306,4.0,6.0,45,0.00,,CLR,0.00,VWS V14.01,2013-08-22 16:22:00,
2013-08-22 09:23:00,76.0,53.2,29.88,NNW,348,0.0,6.0,45,0.00,,CLR,0.00,VWS V14.01,2013-08-22 16:23:00,
2013-08-22 09:24:00,76.2,53.3,29.88,WNW,288,5.0,6.0,45,0.00,,CLR,0.00,VWS V14.01,2013-08-22 16:24:00,
2013-08-22 09:25:00,76.2,53.3,29.88,West,281,5.0,6.0,45,0.00,,CLR,0.00,VWS V14.01,2013-08-22 16:25:00,
2013-08-22 09:26:00,76.2,53.3,29.88,NNW,333,2.0,6.0,45,0.00,,CLR,0.00,VWS V14.01,2013-08-22 16:26:00,
2013-08-22 09:27:00,76.3,53.4,29.88,NNW,341,3.0,7.0,45,0.00,,CLR,0.00,VWS V14.01,2013-08-22 16:27:00,
2013-08-22 09:28:00,76.3,52.8,29.88,NNW,330,4.0,7.0,44,0.00,,CLR,0.00,VWS V14.01,2013-08-22 16:28:00,
2013-08-22 09:30:00,76.3,52.8,29.88,North,1,0.0,7.0,44,0.00,,CLR,0.00,VWS V14.01,2013-08-22 16:30:00,
2013-08-22 09:31:00,76.4,52.9,29.88,NNW,336,4.0,7.0,44,0.00,,CLR,0.00,VWS V14.01,2013-08-22 16:31:00,
2013-08-22 09:33:00,76.4,52.3,29.88,NNW,328,5.0,8.0,43,0.00,,CLR,0.00,VWS V14.01,2013-08-22 16:33:00,
2013-08-22 09:35:00,76.4,52.9,29.88,NW,318,3.0,8.0,44,0.00,,CLR,0.00,VWS V14.01,2013-08-22 16:35:00,
2013-08-22 09:36:00,76.4,52.9,29.88,NNW,334,2.0,8.0,44,0.00,,CLR,0.00,VWS V14.01,2013-08-22 16:36:00,
2013-08-22 09:38:00,76.5,53.0,29.88,NW,307,4.0,4.0,44,0.00,,CLR,0.00,VWS V14.01,2013-08-22 16:38:00,
2013-08-22 09:40:00,76.6,53.1,29.88,North,349,1.0,4.0,44,0.00,,CLR,0.00,VWS V14.01,2013-08-22 16:40:00,
2013-08-22 09:41:00,76.7,53.8,29.88,NW,316,4.0,6.0,45,0.00,,CLR,0.00,VWS V14.01,2013-08-22 16:41:00,
2013-08-22 09:43:00,76.8,52.6,29.88,NNW,327,1.0,6.0,43,0.00,,CLR,0.00,VWS V14.01,2013-08-22 16:43:00,
2013-08-22 09:45:00,76.9,53.3,29.88,NW,314,2.0,6.0,44,0.00,,CLR,0.00,VWS V14.01,2013-08-22 16:45:00,
2013-08-22 09:46:00,76.9,52.7,29.88,NW,323,3.0,6.0,43,0.00,,CLR,0.00,VWS V14.01,2013-08-22 16:46:00,
2013-08-22 09:48:00,76.9,52.7,29.88,NNW,342,2.0,6.0,43,0.00,,CLR,0.00,VWS V14.01,2013-08-22 16:48:00,
2013-08-22 09:50:00,77.0,52.8,29.88,West,280,1.0,6.0,43,0.00,,CLR,0.00,VWS V14.01,2013-08-22 16:50:00,
2013-08-22 09:51:00,77.1,52.9,29.88,WNW,285,4.0,6.0,43,0.00,,CLR,0.00,VWS V14.01,2013-08-22 16:51:00,
2013-08-22 09:53:00,77.2,53.0,29.88,NW,323,3.0,6.0,43,0.00,,CLR,0.00,VWS V14.01,2013-08-22 16:53:00,
2013-08-22 09:55:00,77.3,52.5,29.88,WNW,286,9.0,9.0,42,0.00,,CLR,0.00,VWS V14.01,2013-08-22 16:55:00,
2013-08-22 09:56:00,77.4,52.5,29.88,NW,309,4.0,10.0,42,0.00,,CLR,0.00,VWS V14.01,2013-08-22 16:56:00,
2013-08-22 09:58:00,77.4,51.9,29.88,WSW,255,5.0,10.0,41,0.00,,CLR,0.00,VWS V14.01,2013-08-22 16:58:00,
2013-08-22 10:00:00,77.4,51.9,29.88,WSW,253,5.0,10.0,41,0.00,,CLR,0.00,VWS V14.01,2013-08-22 17:00:00,
2013-08-22 10:02:00,77.4,52.5,29.88,West,270,3.0,10.0,42,0.00,,CLR,0.00,VWS V14.01,2013-08-22 17:02:00,
2013-08-22 10:03:00,77.4,52.5,29.88,North,352,2.0,10.0,42,0.00,,CLR,0.00,VWS V14.01,2013-08-22 17:03:00,
2013-08-22 10:05:00,77.4,53.2,29.88,NW,314,3.0,10.0,43,0.00,,CLR,0.00,VWS V14.01,2013-08-22 17:05:00,
2013-08-22 10:07:00,77.5,52.6,29.88,WNW,303,7.0,9.0,42,0.00,,CLR,0.00,VWS V14.01,2013-08-22 17:07:00,
2013-08-22 10:08:00,77.5,52.0,29.88,NNW,340,2.0,9.0,41,0.00,,CLR,0.00,VWS V14.01,2013-08-22 17:08:00,
2013-08-22 10:10:00,77.6,52.7,29.88,West,272,3.0,9.0,42,0.00,,CLR,0.00,VWS V14.01,2013-08-22 17:10:00,
2013-08-22 10:12:00,77.7,52.2,29.88,WNW,285,2.0,9.0,41,0.00,,CLR,0.00,VWS V14.01,2013-08-22 17:12:00,
2013-08-22 10:13:00,77.8,52.2,29.88,NW,314,7.0,9.0,41,0.00,,CLR,0.00,VWS V14.01,2013-08-22 17:13:00,
2013-08-22 10:14:00,77.9,52.3,29.88,NNW,335,9.0,9.0,41,0.00,,CLR,0.00,VWS V14.01,2013-08-22 17:14:00,
2013-08-22 10:15:00,78.0,52.4,29.88,West,262,5.0,9.0,41,0.00,,CLR,0.00,VWS V14.01,2013-08-22 17:15:00,
2013-08-22 10:17:00,78.4,52.8,29.88,WNW,303,4.0,9.0,41,0.00,,CLR,0.00,VWS V14.01,2013-08-22 17:17:00,
2013-08-22 10:18:00,78.9,52.5,29.88,NW,320,3.0,9.0,40,0.00,,CLR,0.00,VWS V14.01,2013-08-22 17:18:00,
2013-08-22 10:19:00,79.0,52.6,29.88,NW,316,7.0,9.0,40,0.00,,CLR,0.00,VWS V14.01,2013-08-22 17:19:00,
2013-08-22 10:20:00,79.3,52.9,29.88,WNW,283,5.0,10.0,40,0.00,,CLR,0.00,VWS V14.01,2013-08-22 17:20:00,
2013-08-22 10:22:00,79.5,53.1,29.88,NW,308,6.0,10.0,40,0.00,,CLR,0.00,VWS V14.01,2013-08-22 17:22:00,
2013-08-22 10:24:00,79.7,52.6,29.88,West,266,4.0,10.0,39,0.00,,CLR,0.00,VWS V14.01,2013-08-22 17:24:00,
2013-08-22 10:26:00,79.8,52.7,29.88,WNW,294,2.0,10.0,39,0.00,,CLR,0.00,VWS V14.01,2013-08-22 17:26:00,
2013-08-22 10:27:00,80.1,53.6,29.88,NW,326,2.0,10.0,40,0.00,,CLR,0.00,VWS V14.01,2013-08-22 17:27:00,
2013-08-22 10:29:00,80.4,53.2,29.88,West,263,6.0,10.0,39,0.00,,CLR,0.00,VWS V14.01,2013-08-22 17:29:00,
2013-08-22 10:31:00,80.4,53.9,29.88,West,273,3.0,10.0,40,0.00,,CLR,0.00,VWS V14.01,2013-08-22 17:31:00,
2013-08-22 10:32:00,80.3,53.1,29.88,West,261,2.0,10.0,39,0.00,,CLR,0.00,VWS V14.01,2013-08-22 17:32:00,
2013-08-22 10:34:00,80.2,53.7,29.88,WNW,291,3.0,10.0,40,0.00,,CLR,0.00,VWS V14.01,2013-08-22 17:34:00,
2013-08-22 10:36:00,80.1,52.9,29.88,NW,316,8.0,11.0,39,0.00,,CLR,0.00,VWS V14.01,2013-08-22 17:36:00,
2013-08-22 10:37:00,79.9,52.8,29.88,NW,325,4.0,5.0,39,0.00,,CLR,0.00,VWS V14.01,2013-08-22 17:37:00,
2013-08-22 10:39:00,79.9,53.5,29.88,NE,34,2.0,5.0,40,0.00,,CLR,0.00,VWS V14.01,2013-08-22 17:39:00,
2013-08-22 10:41:00,79.8,53.4,29.88,WNW,303,3.0,5.0,40,0.00,,CLR,0.00,VWS V14.01,2013-08-22 17:41:00,
2013-08-22 10:42:00,79.9,54.1,29.88,NNW,337,4.0,5.0,41,0.00,,CLR,0.00,VWS V14.01,2013-08-22 17:42:00,
2013-08-22 10:44:00,80.0,53.5,29.88,NNE,12,4.0,5.0,40,0.00,,CLR,0.00,VWS V14.01,2013-08-22 17:44:00,
2013-08-22 10:46:00,80.2,53.0,29.88,NW,325,4.0,5.0,39,0.00,,CLR,0.00,VWS V14.01,2013-08-22 17:46:00,
2013-08-22 10:48:00,80.3,53.8,29.88,North,351,2.0,7.0,40,0.00,,CLR,0.00,VWS V14.01,2013-08-22 17:48:00,
2013-08-22 10:49:00,80.5,54.0,29.88,NW,317,2.0,7.0,40,0.00,,CLR,0.00,VWS V14.01,2013-08-22 17:49:00,
2013-08-22 10:51:00,80.7,53.5,29.88,NNW,333,6.0,7.0,39,0.00,,CLR,0.00,VWS V14.01,2013-08-22 17:51:00,
2013-08-22 10:53:00,80.8,52.1,29.88,NNW,338,0.0,9.0,37,0.00,,CLR,0.00,VWS V14.01,2013-08-22 17:53:00,
2013-08-22 10:54:00,80.8,52.8,29.88,NNW,329,7.0,9.0,38,0.00,,CLR,0.00,VWS V14.01,2013-08-22 17:54:00,
2013-08-22 10:56:00,80.9,52.9,29.88,NNW,338,4.0,9.0,38,0.00,,CLR,0.00,VWS V14.01,2013-08-22 17:56:00,
2013-08-22 10:58:00,80.9,52.9,29.88,NW,326,4.0,9.0,38,0.00,,CLR,0.00,VWS V14.01,2013-08-22 17:58:00,
2013-08-22 10:59:00,81.0,53.7,29.88,NW,319,2.0,9.0,39,0.00,,CLR,0.00,VWS V14.01,2013-08-22 17:59:00,
2013-08-22 11:00:00,81.0,53.7,29.88,NW,317,5.0,9.0,39,0.00,,CLR,0.00,VWS V14.01,2013-08-22 18:00:00,
2013-08-22 11:01:00,81.1,52.4,29.88,NW,316,3.0,9.0,37,0.00,,CLR,0.00,VWS V14.01,2013-08-22 18:01:00,
2013-08-22 11:03:00,81.1,52.4,29.88,NW,311,4.0,9.0,37,0.00,,CLR,0.00,VWS V14.01,2013-08-22 18:03:00,
2013-08-22 11:05:00,81.1,52.4,29.88,West,278,4.0,9.0,37,0.00,,CLR,0.00,VWS V14.01,2013-08-22 18:05:00,
2013-08-22 11:06:00,81.3,53.3,29.87,West,281,4.0,9.0,38,0.00,,CLR,0.00,VWS V14.01,2013-08-22 18:06:00,
2013-08-22 11:08:00,81.5,52.7,29.87,WNW,290,2.0,6.0,37,0.00,,CLR,0.00,VWS V14.01,2013-08-22 18:08:00,
2013-08-22 11:10:00,81.7,52.9,29.87,WNW,293,2.0,6.0,37,0.00,,CLR,0.00,VWS V14.01,2013-08-22 18:10:00,
2013-08-22 11:11:00,81.9,53.1,29.87,NW,312,3.0,6.0,37,0.00,,CLR,0.00,VWS V14.01,2013-08-22 18:11:00,
2013-08-22 11:12:00,81.9,53.1,29.87,WNW,297,4.0,6.0,37,0.00,,CLR,0.00,VWS V14.01,2013-08-22 18:12:00,
2013-08-22 11:14:00,82.1,53.3,29.87,North,359,1.0,6.0,37,0.00,,CLR,0.00,VWS V14.01,2013-08-22 18:14:00,
2013-08-22 11:15:00,82.3,53.5,29.87,NW,323,6.0,7.0,37,0.00,,CLR,0.00,VWS V14.01,2013-08-22 18:15:00,
2013-08-22 11:17:00,82.4,53.5,29.87,NW,310,3.0,7.0,37,0.00,,CLR,0.00,VWS V14.01,2013-08-22 18:17:00,
2013-08-22 11:19:00,82.5,52.1,29.87,North,8,0.0,7.0,35,0.00,,CLR,0.00,VWS V14.01,2013-08-22 18:19:00,
2013-08-22 11:20:00,82.5,52.9,29.87,NE,44,2.0,7.0,36,0.00,,CLR,0.00,VWS V14.01,2013-08-22 18:20:00,
2013-08-22 11:22:00,82.7,53.1,29.87,NE,51,1.0,7.0,36,0.00,,CLR,0.00,VWS V14.01,2013-08-22 18:22:00,
2013-08-22 11:24:00,82.9,52.5,29.87,North,4,3.0,7.0,35,0.00,,CLR,0.00,VWS V14.01,2013-08-22 18:24:00,
2013-08-22 11:25:00,83.0,52.6,29.87,NNW,335,3.0,7.0,35,0.00,,CLR,0.00,VWS V14.01,2013-08-22 18:25:00,
2013-08-22 11:27:00,83.1,52.6,29.87,NNE,15,2.0,7.0,35,0.00,,CLR,0.00,VWS V14.01,2013-08-22 18:27:00,
2013-08-22 11:29:00,83.2,51.9,29.87,NNE,27,1.0,7.0,34,0.00,,CLR,0.00,VWS V14.01,2013-08-22 18:29:00,
2013-08-22 11:30:00,83.3,52.0,29.87,NNW,333,1.0,7.0,34,0.00,,CLR,0.00,VWS V14.01,2013-08-22 18:30:00,
2013-08-22 11:32:00,84.1,53.5,29.87,NW,320,2.0,7.0,35,0.00,,CLR,0.00,VWS V14.01,2013-08-22 18:32:00,
2013-08-22 11:35:00,84.8,53.3,29.87,North,1,3.0,7.0,34,0.00,,CLR,0.00,VWS V14.01,2013-08-22 18:35:00,
2013-08-22 11:37:00,85.3,53.0,29.87,NNW,329,3.0,3.0,33,0.00,,CLR,0.00,VWS V14.01,2013-08-22 18:37:00,
2013-08-22 11:38:00,85.6,52.4,29.87,NNW,338,1.0,3.0,32,0.00,,CLR,0.00,VWS V14.01,2013-08-22 18:38:00,
2013-08-22 11:40:00,86.1,52.0,29.87,WSW,252,5.0,6.0,31,0.00,,CLR,0.00,VWS V14.01,2013-08-22 18:40:00,
2013-08-22 11:41:00,86.1,52.0,29.87,NW,321,3.0,6.0,31,0.00,,CLR,0.00,VWS V14.01,2013-08-22 18:41:00,
2013-08-22 11:42:00,86.3,52.1,29.87,NNW,345,4.0,6.0,31,0.00,,CLR,0.00,VWS V14.01,2013-08-22 18:42:00,
2013-08-22 11:43:00,86.2,52.0,29.87,NW,322,4.0,7.0,31,0.00,,CLR,0.00,VWS V14.01,2013-08-22 18:43:00,
2013-08-22 11:45:00,86.1,52.0,29.87,NW,322,5.0,7.0,31,0.00,,CLR,0.00,VWS V14.01,2013-08-22 18:45:00,
2013-08-22 11:46:00,86.1,52.0,29.87,NW,313,1.0,7.0,31,0.00,,CLR,0.00,VWS V14.01,2013-08-22 18:46:00,
2013-08-22 11:48:00,85.9,52.7,29.87,West,278,5.0,7.0,32,0.00,,CLR,0.00,VWS V14.01,2013-08-22 18:48:00,
2013-08-22 11:50:00,85.7,51.6,29.87,NW,317,5.0,8.0,31,0.00,,CLR,0.00,VWS V14.01,2013-08-22 18:50:00,
2013-08-22 11:51:00,85.7,51.6,29.86,NW,318,1.0,8.0,31,0.00,,CLR,0.00,VWS V14.01,2013-08-22 18:51:00,
2013-08-22 11:53:00,85.5,52.3,29.86,NW,322,4.0,8.0,32,0.00,,CLR,0.00,VWS V14.01,2013-08-22 18:53:00,
2013-08-22 11:55:00,85.4,52.2,29.86,West,269,6.0,8.0,32,0.00,,CLR,0.00,VWS V14.01,2013-08-22 18:55:00,
2013-08-22 11:56:00,85.4,52.2,29.86,NW,307,3.0,8.0,32,0.00,,CLR,0.00,VWS V14.01,2013-08-22 18:56:00,
2013-08-22 11:58:00,85.4,53.0,29.86,West,273,3.0,8.0,33,0.00,,CLR,0.00,VWS V14.01,2013-08-22 18:58:00,
2013-08-22 12:00:00,85.3,52.1,29.86,NW,324,0.0,8.0,32,0.00,,CLR,0.00,VWS V14.01,2013-08-22 19:00:00,
2013-08-22 12:01:00,85.3,52.1,29.86,North,350,1.0,8.0,32,0.00,,CLR,0.00,VWS V14.01,2013-08-22 19:01:00,
2013-08-22 12:03:00,85.4,52.2,29.86,NW,324,4.0,8.0,32,0.00,,CLR,0.00,VWS V14.01,2013-08-22 19:03:00,
2013-08-22 12:04:00,85.4,52.2,29.86,NW,317,3.0,8.0,32,0.00,,CLR,0.00,VWS V14.01,2013-08-22 19:04:00,
2013-08-22 12:06:00,85.4,52.2,29.86,North,1,1.0,8.0,32,0.00,,CLR,0.00,VWS V14.01,2013-08-22 19:06:00,
2013-08-22 12:08:00,85.7,52.5,29.85,NNE,17,3.0,5.0,32,0.00,,CLR,0.00,VWS V14.01,2013-08-22 19:08:00,
2013-08-22 12:09:00,85.8,52.6,29.85,NNE,17,2.0,5.0,32,0.00,,CLR,0.00,VWS V14.01,2013-08-22 19:09:00,
2013-08-22 12:11:00,85.9,52.7,29.85,WNW,293,4.0,5.0,32,0.00,,CLR,0.00,VWS V14.01,2013-08-22 19:11:00,
2013-08-22 12:12:00,86.0,52.7,29.85,ENE,58,0.0,5.0,32,0.00,,CLR,0.00,VWS V14.01,2013-08-22 19:12:00,
2013-08-22 12:13:00,86.3,53.0,29.85,NNW,328,6.0,9.0,32,0.00,,CLR,0.00,VWS V14.01,2013-08-22 19:13:00,
2013-08-22 12:14:00,86.3,53.0,29.85,NW,310,6.0,9.0,32,0.00,,CLR,0.00,VWS V14.01,2013-08-22 19:14:00,
2013-08-22 12:16:00,86.4,53.1,29.85,WNW,302,0.0,9.0,32,0.00,,CLR,0.00,VWS V14.01,2013-08-22 19:16:00,
2013-08-22 12:17:00,86.4,52.2,29.85,WNW,303,0.0,9.0,31,0.00,,CLR,0.00,VWS V14.01,2013-08-22 19:17:00,
2013-08-22 12:18:00,86.6,54.1,29.85,West,276,6.0,9.0,33,0.00,,CLR,0.00,VWS V14.01,2013-08-22 19:18:00,
2013-08-22 12:19:00,86.7,53.3,29.85,NNW,330,4.0,9.0,32,0.00,,CLR,0.00,VWS V14.01,2013-08-22 19:19:00,
2013-08-22 12:21:00,86.9,52.7,29.85,WNW,288,4.0,9.0,31,0.00,,CLR,0.00,VWS V14.01,2013-08-22 19:21:00,
2013-08-22 12:22:00,86.9,52.7,29.85,NW,311,1.0,9.0,31,0.00,,CLR,0.00,VWS V14.01,2013-08-22 19:22:00,
2013-08-22 12:24:00,87.0,52.7,29.85,NNE,28,1.0,9.0,31,0.00,,CLR,0.00,VWS V14.01,2013-08-22 19:24:00,
2013-08-22 12:26:00,87.3,53.0,29.85,NNW,328,2.0,9.0,31,0.00,,CLR,0.00,VWS V14.01,2013-08-22 19:26:00,
2013-08-22 12:27:00,87.4,52.2,29.85,NW,321,4.0,9.0,30,0.00,,CLR,0.00,VWS V14.01,2013-08-22 19:27:00,
2013-08-22 12:29:00,87.4,53.1,29.85,WNW,287,4.0,9.0,31,0.00,,CLR,0.00,VWS V14.01,2013-08-22 19:29:00,
2013-08-22 12:30:00,87.6,53.3,29.85,West,279,3.0,9.0,31,0.00,,CLR,0.00,VWS V14.01,2013-08-22 19:30:00,
2013-08-22 12:31:00,88.0,53.6,29.85,North,10,2.0,9.0,31,0.00,,CLR,0.00,VWS V14.01,2013-08-22 19:31:00,
2013-08-22 12:32:00,88.5,54.0,29.85,North,359,1.0,9.0,31,0.00,,CLR,0.00,VWS V14.01,2013-08-22 19:32:00,
2013-08-22 12:34:00,89.0,52.7,29.85,NW,321,1.0,9.0,29,0.00,,CLR,0.00,VWS V14.01,2013-08-22 19:34:00,
2013-08-22 12:35:00,89.2,52.8,29.85,NNW,337,0.0,9.0,29,0.00,,CLR,0.00,VWS V14.01,2013-08-22 19:35:00,
2013-08-22 12:36:00,89.7,52.3,29.85,NW,326,2.0,9.0,28,0.00,,CLR,0.00,VWS V14.01,2013-08-22 19:36:00,
2013-08-22 12:37:00,89.8,52.4,29.85,NW,322,2.0,9.0,28,0.00,,CLR,0.00,VWS V14.01,2013-08-22 19:37:00,
2013-08-22 12:38:00,90.0,53.5,29.85,NW,305,2.0,5.0,29,0.00,,CLR,0.00,VWS V14.01,2013-08-22 19:38:00,
2013-08-22 12:39:00,90.2,51.7,29.85,WNW,297,3.0,7.0,27,0.00,,CLR,0.00,VWS V14.01,2013-08-22 19:39:00,
2013-08-22 12:40:00,90.2,51.7,29.85,WNW,299,4.0,7.0,27,0.00,,CLR,0.00,VWS V14.01,2013-08-22 19:40:00,
2013-08-22 12:41:00,90.3,51.8,29.85,West,279,0.0,7.0,27,0.00,,CLR,0.00,VWS V14.01,2013-08-22 19:41:00,
2013-08-22 12:42:00,90.3,51.8,29.85,North,359,1.0,7.0,27,0.00,,CLR,0.00,VWS V14.01,2013-08-22 19:42:00,
2013-08-22 12:43:00,90.4,52.9,29.85,North,1,1.0,7.0,28,0.00,,CLR,0.00,VWS V14.01,2013-08-22 19:43:00,
2013-08-22 12:44:00,90.6,53.1,29.85,NW,316,1.0,7.0,28,0.00,,CLR,0.00,VWS V14.01,2013-08-22 19:44:00,
2013-08-22 12:45:00,90.8,53.2,29.85,NE,54,3.0,7.0,28,0.00,,CLR,0.00,VWS V14.01,2013-08-22 19:45:00,
2013-08-22 12:46:00,90.7,51.1,29.85,NW,322,4.0,7.0,26,0.00,,CLR,0.00,VWS V14.01,2013-08-22 19:46:00,
2013-08-22 12:47:00,90.7,51.1,29.85,NW,314,4.0,7.0,26,0.00,,CLR,0.00,VWS V14.01,2013-08-22 19:47:00,
2013-08-22 12:48:00,90.6,51.0,29.85,NNW,337,2.0,7.0,26,0.00,,CLR,0.00,VWS V14.01,2013-08-22 19:48:00,
2013-08-22 12:49:00,90.4,51.9,29.85,North,1,3.0,7.0,27,0.00,,CLR,0.00,VWS V14.01,2013-08-22 19:49:00,
2013-08-22 12:50:00,90.3,51.8,29.85,North,359,1.0,7.0,27,0.00,,CLR,0.00,VWS V14.01,2013-08-22 19:50:00,
2013-08-22 12:52:00,90.1,51.7,29.84,North,357,1.0,7.0,27,0.00,,CLR,0.00,VWS V14.01,2013-08-22 19:52:00,
2013-08-22 12:53:00,90.1,51.7,29.84,NNE,13,2.0,7.0,27,0.00,,CLR,0.00,VWS V14.01,2013-08-22 19:53:00,
2013-08-22 12:54:00,90.2,51.7,29.84,North,0,0.0,7.0,27,0.00,,CLR,0.00,VWS V14.01,2013-08-22 19:54:00,
2013-08-22 12:55:00,90.2,51.7,29.84,NW,326,3.0,7.0,27,0.00,,CLR,0.00,VWS V14.01,2013-08-22 19:55:00,
2013-08-22 12:57:00,90.4,50.9,29.84,NNW,337,1.0,7.0,26,0.00,,CLR,0.00,VWS V14.01,2013-08-22 19:57:00,
2013-08-22 12:58:00,90.4,49.8,29.84,NNW,341,1.0,7.0,25,0.00,,CLR,0.00,VWS V14.01,2013-08-22 19:58:00,
2013-08-22 12:59:00,90.4,49.8,29.84,NNW,342,1.0,7.0,25,0.00,,CLR,0.00,VWS V14.01,2013-08-22 19:59:00,
2013-08-22 13:00:00,90.5,49.9,29.84,NNW,342,1.0,7.0,25,0.00,,CLR,0.00,VWS V14.01,2013-08-22 20:00:00,
2013-08-22 13:02:00,90.6,52.1,29.84,North,1,3.0,7.0,27,0.00,,CLR,0.00,VWS V14.01,2013-08-22 20:02:00,
2013-08-22 13:03:00,90.7,52.2,29.84,NNW,333,4.0,7.0,27,0.00,,CLR,0.00,VWS V14.01,2013-08-22 20:03:00,
2013-08-22 13:04:00,90.8,51.2,29.84,North,1,2.0,7.0,26,0.00,,CLR,0.00,VWS V14.01,2013-08-22 20:04:00,
2013-08-22 13:05:00,90.8,52.2,29.84,North,1,1.0,7.0,27,0.00,,CLR,0.00,VWS V14.01,2013-08-22 20:05:00,
2013-08-22 13:07:00,90.9,51.3,29.83,WNW,301,4.0,4.0,26,0.00,,CLR,0.00,VWS V14.01,2013-08-22 20:07:00,
2013-08-22 13:08:00,90.8,51.2,29.83,West,277,5.0,7.0,26,0.00,,CLR,0.00,VWS V14.01,2013-08-22 20:08:00,
2013-08-22 13:10:00,90.5,51.0,29.83,WSW,252,4.0,7.0,26,0.00,,CLR,0.00,VWS V14.01,2013-08-22 20:10:00,
2013-08-22 13:11:00,90.2,50.7,29.83,West,274,3.0,7.0,26,0.00,,CLR,0.00,VWS V14.01,2013-08-22 20:11:00,
2013-08-22 13:12:00,90.0,51.6,29.83,SW,233,3.0,7.0,27,0.00,,CLR,0.00,VWS V14.01,2013-08-22 20:12:00,
2013-08-22 13:14:00,89.9,51.5,29.83,WSW,241,3.0,7.0,27,0.00,,CLR,0.00,VWS V14.01,2013-08-22 20:14:00,
2013-08-22 13:15:00,89.8,52.4,29.83,West,274,3.0,7.0,28,0.00,,CLR,0.00,VWS V14.01,2013-08-22 20:15:00,
2013-08-22 13:16:00,89.8,52.4,29.83,WNW,290,2.0,7.0,28,0.00,,CLR,0.00,VWS V14.01,2013-08-22 20:16:00,
2013-08-22 13:17:00,90.0,52.5,29.83,WNW,288,1.0,7.0,28,0.00,,CLR,0.00,VWS V14.01,2013-08-22 20:17:00,
2013-08-22 13:18:00,90.1,52.6,29.83,WNW,288,1.0,7.0,28,0.00,,CLR,0.00,VWS V14.01,2013-08-22 20:18:00,
2013-08-22 13:19:00,90.1,52.6,29.83,WNW,287,5.0,7.0,28,0.00,,CLR,0.00,VWS V14.01,2013-08-22 20:19:00,
2013-08-22 13:20:00,90.2,52.7,29.83,West,275,6.0,7.0,28,0.00,,CLR,0.00,VWS V14.01,2013-08-22 20:20:00,
2013-08-22 13:21:00,90.2,51.7,29.83,WNW,288,3.0,7.0,27,0.00,,CLR,0.00,VWS V14.01,2013-08-22 20:21:00,
2013-08-22 13:23:00,90.2,51.7,29.83,WNW,295,4.0,8.0,27,0.00,,CLR,0.00,VWS V14.01,2013-08-22 20:23:00,
2013-08-22 13:25:00,90.1,50.6,29.83,WNW,293,5.0,8.0,26,0.00,,CLR,0.00,VWS V14.01,2013-08-22 20:25:00,
2013-08-22 13:26:00,90.1,51.7,29.83,WNW,295,2.0,8.0,27,0.00,,CLR,0.00,VWS V14.01,2013-08-22 20:26:00,
2013-08-22 13:28:00,90.3,50.8,29.83,NW,314,3.0,8.0,26,0.00,,CLR,0.00,VWS V14.01,2013-08-22 20:28:00,
2013-08-22 13:30:00,91.0,51.4,29.83,West,278,3.0,8.0,26,0.00,,CLR,0.00,VWS V14.01,2013-08-22 20:30:00,
2013-08-22 13:31:00,91.4,52.8,29.83,West,274,4.0,8.0,27,0.00,,CLR,0.00,VWS V14.01,2013-08-22 20:31:00,
2013-08-22 13:33:00,91.8,52.1,29.83,WNW,287,2.0,8.0,26,0.00,,CLR,0.00,VWS V14.01,2013-08-22 20:33:00,
2013-08-22 13:35:00,92.2,51.3,29.83,NW,311,1.0,8.0,25,0.00,,CLR,0.00,VWS V14.01,2013-08-22 20:35:00,
2013-08-22 13:36:00,92.7,51.8,29.83,WNW,300,1.0,8.0,25,0.00,,CLR,0.00,VWS V14.01,2013-08-22 20:36:00,
2013-08-22 13:38:00,92.9,51.9,29.83,WNW,295,0.0,3.0,25,0.00,,CLR,0.00,VWS V14.01,2013-08-22 20:38:00,
2013-08-22 13:40:00,93.1,53.2,29.83,NNW,347,0.0,3.0,26,0.00,,CLR,0.00,VWS V14.01,2013-08-22 20:40:00,
2013-08-22 13:41:00,93.3,52.3,29.83,NW,325,5.0,5.0,25,0.00,,CLR,0.00,VWS V14.01,2013-08-22 20:41:00,
2013-08-22 13:43:00,93.5,52.4,29.83,NW,305,1.0,6.0,25,0.00,,CLR,0.00,VWS V14.01,2013-08-22 20:43:00,
2013-08-22 13:45:00,93.6,52.5,29.83,NNW,330,3.0,6.0,25,0.00,,CLR,0.00,VWS V14.01,2013-08-22 20:45:00,
2013-08-22 13:46:00,93.5,52.4,29.83,WNW,301,1.0,6.0,25,0.00,,CLR,0.00,VWS V14.01,2013-08-22 20:46:00,
2013-08-22 13:48:00,93.4,52.3,29.83,WSW,249,4.0,6.0,25,0.00,,CLR,0.00,VWS V14.01,2013-08-22 20:48:00,
2013-08-22 13:50:00,93.0,52.0,29.83,NNE,27,4.0,10.0,25,0.00,,CLR,0.00,VWS V14.01,2013-08-22 20:50:00,
2013-08-22 13:52:00,92.6,51.7,29.82,NE,44,1.0,10.0,25,0.00,,CLR,0.00,VWS V14.01,2013-08-22 20:52:00,
2013-08-22 13:53:00,92.6,52.7,29.82,NNW,336,3.0,10.0,26,0.00,,CLR,0.00,VWS V14.01,2013-08-22 20:53:00,
2013-08-22 13:55:00,92.4,50.4,29.82,NW,321,0.0,10.0,24,0.00,,CLR,0.00,VWS V14.01,2013-08-22 20:55:00,
2013-08-22 13:57:00,92.3,51.4,29.82,NE,51,1.0,10.0,25,0.00,,CLR,0.00,VWS V14.01,2013-08-22 20:57:00,
2013-08-22 13:58:00,92.2,51.3,29.82,ENE,64,2.0,10.0,25,0.00,,CLR,0.00,VWS V14.01,2013-08-22 20:58:00,
2013-08-22 14:00:00,92.0,52.2,29.82,ENE,68,3.0,10.0,26,0.00,,CLR,0.00,VWS V14.01,2013-08-22 21:00:00,
2013-08-22 14:02:00,92.0,52.2,29.82,ENE,63,0.0,10.0,26,0.00,,CLR,0.00,VWS V14.01,2013-08-22 21:02:00,
2013-08-22 14:03:00,92.3,51.4,29.82,NNW,337,4.0,10.0,25,0.00,,CLR,0.00,VWS V14.01,2013-08-22 21:03:00,
2013-08-22 14:04:00,92.3,51.4,29.82,NNW,342,3.0,10.0,25,0.00,,CLR,0.00,VWS V14.01,2013-08-22 21:04:00,
2013-08-22 14:05:00,92.3,51.4,29.82,NW,314,3.0,10.0,25,0.00,,CLR,0.00,VWS V14.01,2013-08-22 21:05:00,
2013-08-22 14:07:00,92.4,51.5,29.82,NW,316,1.0,2.0,25,0.00,,CLR,0.00,VWS V14.01,2013-08-22 21:07:00,
2013-08-22 14:08:00,92.6,51.7,29.82,NE,49,2.0,4.0,25,0.00,,CLR,0.00,VWS V14.01,2013-08-22 21:08:00,
2013-08-22 14:09:00,92.6,51.7,29.82,NE,47,1.0,4.0,25,0.00,,CLR,0.00,VWS V14.01,2013-08-22 21:09:00,
2013-08-22 14:10:00,93.0,53.1,29.82,WNW,303,1.0,4.0,26,0.00,,CLR,0.00,VWS V14.01,2013-08-22 21:10:00,
2013-08-22 14:11:00,93.1,52.1,29.82,WNW,299,2.0,4.0,25,0.00,,CLR,0.00,VWS V14.01,2013-08-22 21:11:00,
2013-08-22 14:12:00,93.5,52.4,29.82,NE,38,4.0,5.0,25,0.00,,CLR,0.00,VWS V14.01,2013-08-22 21:12:00,
2013-08-22 14:13:00,93.8,52.7,29.82,North,359,4.0,5.0,25,0.00,,CLR,0.00,VWS V14.01,2013-08-22 21:13:00,
2013-08-22 14:14:00,93.9,52.8,29.82,North,356,3.0,5.0,25,0.00,,CLR,0.00,VWS V14.01,2013-08-22 21:14:00,
2013-08-22 14:15:00,94.1,52.9,29.82,NW,313,3.0,6.0,25,0.00,,CLR,0.00,VWS V14.01,2013-08-22 21:15:00,
2013-08-22 14:16:00,94.3,53.1,29.82,NW,317,3.0,6.0,25,0.00,,CLR,0.00,VWS V14.01,2013-08-22 21:16:00,
2013-08-22 14:17:00,94.9,52.5,29.82,North,359,0.0,6.0,24,0.00,,CLR,0.00,VWS V14.01,2013-08-22 21:17:00,
2013-08-22 14:19:00,95.4,51.8,29.82,WNW,287,6.0,8.0,23,0.00,,CLR,0.00,VWS V14.01,2013-08-22 21:19:00,
2013-08-22 14:20:00,95.3,51.7,29.82,North,349,2.0,8.0,23,0.00,,CLR,0.00,VWS V14.01,2013-08-22 21:20:00,
2013-08-22 14:21:00,95.3,51.7,29.81,NW,321,4.0,8.0,23,0.00,,CLR,0.00,VWS V14.01,2013-08-22 21:21:00,
2013-08-22 14:22:00,95.3,50.5,29.81,NW,308,1.0,8.0,22,0.00,,CLR,0.00,VWS V14.01,2013-08-22 21:22:00,
2013-08-22 14:24:00,95.2,50.4,29.81,NW,319,3.0,8.0,22,0.00,,CLR,0.00,VWS V14.01,2013-08-22 21:24:00,
2013-08-22 14:25:00,95.3,51.7,29.81,NW,323,6.0,8.0,23,0.00,,CLR,0.00,VWS V14.01,2013-08-22 21:25:00,
2013-08-22 14:26:00,95.3,50.5,29.81,NW,305,1.0,8.0,22,0.00,,CLR,0.00,VWS V14.01,2013-08-22 21:26:00,
2013-08-22 14:27:00,95.1,50.3,29.81,SSW,210,5.0,8.0,22,0.00,,CLR,0.00,VWS V14.01,2013-08-22 21:27:00,
2013-08-22 14:30:00,94.7,51.2,29.81,SSE,161,0.0,8.0,23,0.00,,CLR,0.00,VWS V14.01,2013-08-22 21:30:00,
2013-08-22 14:31:00,94.7,51.2,29.81,NNE,25,1.0,8.0,23,0.00,,CLR,0.00,VWS V14.01,2013-08-22 21:31:00,
2013-08-22 14:32:00,95.1,51.5,29.81,WNW,300,2.0,8.0,23,0.00,,CLR,0.00,VWS V14.01,2013-08-22 21:32:00,
2013-08-22 14:35:00,95.6,50.7,29.81,NNW,330,3.0,8.0,22,0.00,,CLR,0.00,VWS V14.01,2013-08-22 21:35:00,
2013-08-22 14:36:00,95.6,51.9,29.80,NNW,330,3.0,8.0,23,0.00,,CLR,0.00,VWS V14.01,2013-08-22 21:36:00,
2013-08-22 14:37:00,95.6,49.5,29.80,NW,321,3.0,3.0,21,0.00,,CLR,0.00,VWS V14.01,2013-08-22 21:37:00,
2013-08-22 14:40:00,95.6,50.7,29.80,NE,37,3.0,4.0,22,0.00,,CLR,0.00,VWS V14.01,2013-08-22 21:40:00,
2013-08-22 14:41:00,95.5,50.7,29.80,NE,48,2.0,4.0,22,0.00,,CLR,0.00,VWS V14.01,2013-08-22 21:41:00,
2013-08-22 14:43:00,95.3,51.7,29.80,NNE,15,1.0,4.0,23,0.00,,CLR,0.00,VWS V14.01,2013-08-22 21:43:00,
2013-08-22 14:45:00,95.4,52.9,29.80,NNE,28,1.0,4.0,24,0.00,,CLR,0.00,VWS V14.01,2013-08-22 21:45:00,
2013-08-22 14:46:00,95.5,50.7,29.80,NNW,336,1.0,4.0,22,0.00,,CLR,0.00,VWS V14.01,2013-08-22 21:46:00,
2013-08-22 14:47:00,95.5,51.8,29.80,NW,319,5.0,6.0,23,0.00,,CLR,0.00,VWS V14.01,2013-08-22 21:47:00,
2013-08-22 14:48:00,95.4,51.8,29.80,NNW,327,2.0,6.0,23,0.00,,CLR,0.00,VWS V14.01,2013-08-22 21:48:00,
2013-08-22 14:50:00,95.4,51.8,29.80,NW,321,7.0,9.0,23,0.00,,CLR,0.00,VWS V14.01,2013-08-22 21:50:00,
2013-08-22 14:51:00,95.3,51.7,29.79,NNW,342,3.0,9.0,23,0.00,,CLR,0.00,VWS V14.01,2013-08-22 21:51:00,
2013-08-22 14:52:00,95.2,51.6,29.79,NNW,332,5.0,9.0,23,0.00,,CLR,0.00,VWS V14.01,2013-08-22 21:52:00,
2013-08-22 14:53:00,95.1,51.5,29.79,NW,324,4.0,9.0,23,0.00,,CLR,0.00,VWS V14.01,2013-08-22 21:53:00,
2013-08-22 14:55:00,94.9,51.3,29.79,West,271,4.0,9.0,23,0.00,,CLR,0.00,VWS V14.01,2013-08-22 21:55:00,
2013-08-22 14:56:00,94.9,51.3,29.79,NW,307,7.0,9.0,23,0.00,,CLR,0.00,VWS V14.01,2013-08-22 21:56:00,
2013-08-22 14:57:00,94.9,51.3,29.79,NNW,329,6.0,9.0,23,0.00,,CLR,0.00,VWS V14.01,2013-08-22 21:57:00,
2013-08-22 14:58:00,94.9,51.3,29.79,WNW,302,3.0,9.0,23,0.00,,CLR,0.00,VWS V14.01,2013-08-22 21:58:00,
2013-08-22 15:01:00,94.9,51.3,29.79,NE,37,0.0,9.0,23,0.00,,CLR,0.00,VWS V14.01,2013-08-22 22:01:00,
2013-08-22 15:02:00,94.9,51.3,29.79,NW,321,1.0,9.0,23,0.00,,CLR,0.00,VWS V14.01,2013-08-22 22:02:00,
2013-08-22 15:03:00,95.1,51.5,29.79,NW,323,7.0,9.0,23,0.00,,CLR,0.00,VWS V14.01,2013-08-22 22:03:00,
2013-08-22 15:06:00,95.9,52.2,29.79,NW,323,3.0,9.0,23,0.00,,CLR,0.00,VWS V14.01,2013-08-22 22:06:00,
2013-08-22 15:07:00,96.3,52.5,29.79,NNW,341,0.0,1.0,23,0.00,,CLR,0.00,VWS V14.01,2013-08-22 22:07:00,
2013-08-22 15:08:00,96.7,52.8,29.79,NNW,335,2.0,2.0,23,0.00,,CLR,0.00,VWS V14.01,2013-08-22 22:08:00,
2013-08-22 15:11:00,97.2,52.0,29.79,SW,233,4.0,6.0,22,0.00,,CLR,0.00,VWS V14.01,2013-08-22 22:11:00,
2013-08-22 15:12:00,97.1,52.0,29.79,SW,229,0.0,6.0,22,0.00,,CLR,0.00,VWS V14.01,2013-08-22 22:12:00,
2013-08-22 15:13:00,97.0,50.6,29.79,NNW,336,2.0,6.0,21,0.00,,CLR,0.00,VWS V14.01,2013-08-22 22:13:00,
2013-08-22 15:16:00,97.6,52.4,29.79,NNW,333,4.0,6.0,22,0.00,,CLR,0.00,VWS V14.01,2013-08-22 22:16:00,
2013-08-22 15:17:00,97.7,52.5,29.79,NW,322,4.0,7.0,22,0.00,,CLR,0.00,VWS V14.01,2013-08-22 22:17:00,
2013-08-22 15:18:00,97.8,51.3,29.79,WNW,283,1.0,7.0,21,0.00,,CLR,0.00,VWS V14.01,2013-08-22 22:18:00,
2013-08-22 15:21:00,98.2,51.6,29.78,NNW,345,2.0,9.0,21,0.00,,CLR,0.00,VWS V14.01,2013-08-22 22:21:00,
2013-08-22 15:22:00,98.3,53.0,29.78,NNW,342,2.0,9.0,22,0.00,,CLR,0.00,VWS V14.01,2013-08-22 22:22:00,
2013-08-22 15:23:00,98.5,53.1,29.78,NNW,329,4.0,9.0,22,0.00,,CLR,0.00,VWS V14.01,2013-08-22 22:23:00,
2013-08-22 15:27:00,98.3,50.4,29.78,NW,319,5.0,9.0,20,0.00,,CLR,0.00,VWS V14.01,2013-08-22 22:27:00,
2013-08-22 15:28:00,97.9,51.4,29.78,WNW,302,4.0,9.0,21,0.00,,CLR,0.00,VWS V14.01,2013-08-22 22:28:00,
2013-08-22 15:32:00,97.4,51.0,29.78,West,281,4.0,9.0,21,0.00,,CLR,0.00,VWS V14.01,2013-08-22 22:32:00,
2013-08-22 15:34:00,97.2,50.8,29.78,West,274,1.0,9.0,21,0.00,,CLR,0.00,VWS V14.01,2013-08-22 22:34:00,
2013-08-22 15:37:00,96.9,50.5,29.77,SSE,159,0.0,0.0,21,0.00,,CLR,0.00,VWS V14.01,2013-08-22 22:37:00,
2013-08-22 15:38:00,97.0,53.1,29.77,SSE,155,1.0,1.0,23,0.00,,CLR,0.00,VWS V14.01,2013-08-22 22:38:00,
2013-08-22 15:39:00,97.2,52.0,29.77,ENE,67,1.0,3.0,22,0.00,,CLR,0.00,VWS V14.01,2013-08-22 22:39:00,
2013-08-22 15:42:00,97.3,50.9,29.77,NNW,328,1.0,4.0,21,0.00,,CLR,0.00,VWS V14.01,2013-08-22 22:42:00,
2013-08-22 15:43:00,97.4,51.0,29.77,WNW,289,5.0,9.0,21,0.00,,CLR,0.00,VWS V14.01,2013-08-22 22:43:00,
2013-08-22 15:44:00,97.3,50.9,29.77,NW,313,5.0,9.0,21,0.00,,CLR,0.00,VWS V14.01,2013-08-22 22:44:00,
2013-08-22 15:47:00,96.9,51.8,29.77,NE,53,0.0,9.0,22,0.00,,CLR,0.00,VWS V14.01,2013-08-22 22:47:00,
2013-08-22 15:48:00,96.9,51.8,29.77,WNW,296,2.0,9.0,22,0.00,,CLR,0.00,VWS V14.01,2013-08-22 22:48:00,
2013-08-22 15:49:00,96.9,50.5,29.77,West,278,2.0,9.0,21,0.00,,CLR,0.00,VWS V14.01,2013-08-22 22:49:00,
2013-08-22 15:52:00,97.4,52.2,29.76,NW,322,3.0,9.0,22,0.00,,CLR,0.00,VWS V14.01,2013-08-22 22:52:00,
2013-08-22 15:53:00,97.8,52.5,29.76,NNE,19,4.0,9.0,22,0.00,,CLR,0.00,VWS V14.01,2013-08-22 22:53:00,
2013-08-22 15:54:00,98.2,51.6,29.76,North,1,3.0,9.0,21,0.00,,CLR,0.00,VWS V14.01,2013-08-22 22:54:00,
2013-08-22 15:58:00,99.4,51.3,29.76,NW,316,1.0,9.0,20,0.00,,CLR,0.00,VWS V14.01,2013-08-22 22:58:00,
2013-08-22 15:59:00,99.4,51.3,29.76,NNE,20,2.0,9.0,20,0.00,,CLR,0.00,VWS V14.01,2013-08-22 22:59:00,
2013-08-22 16:03:00,99.6,51.4,29.76,NW,316,1.0,9.0,20,0.00,,CLR,0.00,VWS V14.01,2013-08-22 23:03:00,
2013-08-22 16:04:00,99.6,50.1,29.76,North,2,2.0,9.0,19,0.00,,CLR,0.00,VWS V14.01,2013-08-22 23:04:00,
2013-08-22 16:08:00,100.0,48.9,29.75,NNW,330,3.0,4.0,18,0.00,,CLR,0.00,VWS V14.01,2013-08-22 23:08:00,
2013-08-22 16:09:00,100.0,48.9,29.75,NNW,342,3.0,4.0,18,0.00,,CLR,0.00,VWS V14.01,2013-08-22 23:09:00,
2013-08-22 16:13:00,100.2,49.1,29.75,NNW,328,4.0,7.0,18,0.00,,CLR,0.00,VWS V14.01,2013-08-22 23:13:00,
2013-08-22 16:14:00,100.1,49.0,29.75,NNW,328,4.0,7.0,18,0.00,,CLR,0.00,VWS V14.01,2013-08-22 23:14:00,
2013-08-22 16:18:00,99.5,50.0,29.75,North,1,1.0,7.0,19,0.00,,CLR,0.00,VWS V14.01,2013-08-22 23:18:00,
2013-08-22 16:19:00,99.4,49.9,29.75,North,1,1.0,7.0,19,0.00,,CLR,0.00,VWS V14.01,2013-08-22 23:19:00,
2013-08-22 16:20:00,99.4,49.9,29.75,North,0,1.0,7.0,19,0.00,,CLR,0.00,VWS V14.01,2013-08-22 23:20:00,
2013-08-22 16:23:00,98.9,49.5,29.75,NW,304,0.0,7.0,19,0.00,,CLR,0.00,VWS V14.01,2013-08-22 23:23:00,
2013-08-22 16:24:00,98.9,49.5,29.75,NW,304,2.0,7.0,19,0.00,,CLR,0.00,VWS V14.01,2013-08-22 23:24:00,
2013-08-22 16:25:00,98.9,48.0,29.75,North,354,2.0,7.0,18,0.00,,CLR,0.00,VWS V14.01,2013-08-22 23:25:00,
2013-08-22 16:28:00,98.7,47.9,29.75,NW,305,3.0,7.0,18,0.00,,CLR,0.00,VWS V14.01,2013-08-22 23:28:00,
2013-08-22 16:29:00,98.6,47.8,29.75,NW,305,5.0,7.0,18,0.00,,CLR,0.00,VWS V14.01,2013-08-22 23:29:00,
2013-08-22 16:30:00,98.5,47.7,29.75,WNW,288,6.0,7.0,18,0.00,,CLR,0.00,VWS V14.01,2013-08-22 23:30:00,
2013-08-22 16:33:00,97.8,48.6,29.75,WNW,291,4.0,8.0,19,0.00,,CLR,0.00,VWS V14.01,2013-08-22 23:33:00,
2013-08-22 16:34:00,97.8,48.6,29.75,NW,314,2.0,8.0,19,0.00,,CLR,0.00,VWS V14.01,2013-08-22 23:34:00,
2013-08-22 16:35:00,97.6,48.4,29.75,West,266,3.0,8.0,19,0.00,,CLR,0.00,VWS V14.01,2013-08-22 23:35:00,
2013-08-22 16:38:00,97.5,49.7,29.75,NW,305,0.0,3.0,20,0.00,,CLR,0.00,VWS V14.01,2013-08-22 23:38:00,
2013-08-22 16:39:00,97.6,49.8,29.75,West,266,3.0,4.0,20,0.00,,CLR,0.00,VWS V14.01,2013-08-22 23:39:00,
2013-08-22 16:40:00,97.8,48.6,29.75,NW,311,1.0,4.0,19,0.00,,CLR,0.00,VWS V14.01,2013-08-22 23:40:00,
2013-08-22 16:44:00,98.9,49.5,29.75,WNW,292,0.0,0.0,19,0.00,,,0.00,VWS V14.01,2013-08-22 23:44:00,
2013-08-22 16:45:00,99.0,49.6,29.75,NW,323,2.0,2.0,19,0.00,,,0.00,VWS V14.01,2013-08-22 23:45:00,
2013-08-22 16:49:00,99.6,48.6,29.75,NW,319,1.0,5.0,18,0.00,,CLR,0.00,VWS V14.01,2013-08-22 23:49:00,
2013-08-22 16:50:00,99.5,50.0,29.75,WNW,288,2.0,5.0,19,0.00,,CLR,0.00,VWS V14.01,2013-08-22 23:50:00,
2013-08-22 16:54:00,99.6,48.6,29.75,NNW,334,0.0,5.0,18,0.00,,CLR,0.00,VWS V14.01,2013-08-22 23:54:00,
2013-08-22 16:55:00,99.6,48.6,29.75,NW,311,0.0,5.0,18,0.00,,CLR,0.00,VWS V14.01,2013-08-22 23:55:00,
2013-08-22 16:59:00,99.9,48.8,29.75,West,271,2.0,5.0,18,0.00,,CLR,0.00,VWS V14.01,2013-08-22 23:59:00,
2013-08-22 17:00:00,99.9,48.8,29.75,West,266,4.0,5.0,18,0.00,,CLR,0.00,VWS V14.01,2013-08-23 00:00:00,
2013-08-22 17:05:00,99.2,48.3,29.75,NW,319,4.0,7.0,18,0.00,,CLR,0.00,VWS V14.01,2013-08-23 00:05:00,
2013-08-22 17:10:00,98.7,49.3,29.74,NW,326,6.0,9.0,19,0.00,,CLR,0.00,VWS V14.01,2013-08-23 00:10:00,
2013-08-22 17:11:00,98.6,49.2,29.74,NW,311,4.0,9.0,19,0.00,,CLR,0.00,VWS V14.01,2013-08-23 00:11:00,
2013-08-22 17:15:00,98.3,47.6,29.74,NNW,335,1.0,9.0,18,0.00,,CLR,0.00,VWS V14.01,2013-08-23 00:15:00,
2013-08-22 17:16:00,98.2,48.9,29.74,West,281,4.0,9.0,19,0.00,,CLR,0.00,VWS V14.01,2013-08-23 00:16:00,
2013-08-22 17:20:00,98.2,50.3,29.74,NNW,335,6.0,9.0,20,0.00,,CLR,0.00,VWS V14.01,2013-08-23 00:20:00,
2013-08-22 17:21:00,98.2,48.9,29.74,NNW,330,2.0,9.0,19,0.00,,CLR,0.00,VWS V14.01,2013-08-23 00:21:00,
2013-08-22 17:25:00,98.0,50.1,29.74,NW,326,2.0,9.0,20,0.00,,CLR,0.00,VWS V14.01,2013-08-23 00:25:00,
2013-08-22 17:26:00,98.0,50.1,29.74,NW,326,0.0,9.0,20,0.00,,CLR,0.00,VWS V14.01,2013-08-23 00:26:00,
2013-08-22 17:30:00,99.0,51.0,29.74,NNE,18,4.0,9.0,20,0.00,,CLR,0.00,VWS V14.01,2013-08-23 00:30:00,
2013-08-22 17:31:00,99.0,51.0,29.74,North,359,1.0,9.0,20,0.00,,CLR,0.00,VWS V14.01,2013-08-23 00:31:00,
2013-08-22 17:35:00,99.4,48.5,29.74,NNW,333,3.0,9.0,18,0.00,,CLR,0.00,VWS V14.01,2013-08-23 00:35:00,
2013-08-22 17:36:00,99.6,48.6,29.74,NW,313,3.0,9.0,18,0.00,,CLR,0.00,VWS V14.01,2013-08-23 00:36:00,
2013-08-22 17:41:00,99.8,47.2,29.74,WNW,291,3.0,5.0,17,0.00,,CLR,0.00,VWS V14.01,2013-08-23 00:41:00,
2013-08-22 17:46:00,99.9,50.3,29.74,WNW,294,1.0,5.0,19,0.00,,CLR,0.00,VWS V14.01,2013-08-23 00:46:00,
2013-08-22 17:47:00,99.8,50.2,29.74,NW,321,3.0,6.0,19,0.00,,CLR,0.00,VWS V14.01,2013-08-23 00:47:00,
2013-08-22 17:51:00,99.0,49.6,29.74,NW,319,6.0,7.0,19,0.00,,CLR,0.00,VWS V14.01,2013-08-23 00:51:00,
2013-08-22 17:52:00,98.9,49.5,29.73,NNW,329,4.0,7.0,19,0.00,,CLR,0.00,VWS V14.01,2013-08-23 00:52:00,
2013-08-22 17:56:00,98.3,50.4,29.73,NNW,335,3.0,7.0,20,0.00,,CLR,0.00,VWS V14.01,2013-08-23 00:56:00,
2013-08-22 17:57:00,98.2,50.3,29.73,NNW,335,2.0,7.0,20,0.00,,CLR,0.00,VWS V14.01,2013-08-23 00:57:00,
2013-08-22 18:01:00,98.2,50.3,29.73,NNW,335,0.0,7.0,20,0.00,,CLR,0.00,VWS V14.01,2013-08-23 01:01:00,
2013-08-22 18:02:00,98.2,50.3,29.73,NNW,335,0.0,7.0,20,0.00,,CLR,0.00,VWS V14.01,2013-08-23 01:02:00,
2013-08-22 18:06:00,98.5,49.2,29.73,NNE,21,1.0,7.0,19,0.00,,CLR,0.00,VWS V14.01,2013-08-23 01:06:00,
2013-08-22 18:07:00,98.5,49.2,29.73,NNE,21,1.0,7.0,19,0.00,,CLR,0.00,VWS V14.01,2013-08-23 01:07:00,
2013-08-22 18:11:00,98.8,50.8,29.73,WNW,300,0.0,4.0,20,0.00,,CLR,0.00,VWS V14.01,2013-08-23 01:11:00,
2013-08-22 18:12:00,98.9,49.5,29.73,NW,319,0.0,4.0,19,0.00,,CLR,0.00,VWS V14.01,2013-08-23 01:12:00,
2013-08-22 18:16:00,99.4,48.5,29.73,WNW,301,3.0,4.0,18,0.00,,CLR,0.00,VWS V14.01,2013-08-23 01:16:00,
2013-08-22 18:17:00,99.4,48.5,29.73,West,268,1.0,4.0,18,0.00,,CLR,0.00,VWS V14.01,2013-08-23 01:17:00,
2013-08-22 18:21:00,99.5,50.0,29.72,NNW,333,2.0,4.0,19,0.00,,CLR,0.00,VWS V14.01,2013-08-23 01:21:00,
2013-08-22 18:22:00,99.5,50.0,29.72,NNW,330,2.0,4.0,19,0.00,,CLR,0.00,VWS V14.01,2013-08-23 01:22:00,
2013-08-22 18:26:00,99.6,50.1,29.72,NNW,339,1.0,4.0,19,0.00,,CLR,0.00,VWS V14.01,2013-08-23 01:26:00,
2013-08-22 18:27:00,99.6,50.1,29.72,NNW,345,1.0,4.0,19,0.00,,CLR,0.00,VWS V14.01,2013-08-23 01:27:00,
2013-08-22 18:28:00,99.5,50.0,29.72,NW,322,3.0,4.0,19,0.00,,CLR,0.00,VWS V14.01,2013-08-23 01:28:00,
2013-08-22 18:32:00,99.4,49.9,29.72,NNW,345,0.0,4.0,19,0.00,,CLR,0.00,VWS V14.01,2013-08-23 01:32:00,
2013-08-22 18:33:00,99.4,49.9,29.72,NNW,345,0.0,4.0,19,0.00,,CLR,0.00,VWS V14.01,2013-08-23 01:33:00,
2013-08-22 18:37:00,98.9,50.9,29.72,North,359,1.0,1.0,20,0.00,,CLR,0.00,VWS V14.01,2013-08-23 01:37:00,
2013-08-22 18:38:00,98.8,49.4,29.72,NNW,328,2.0,3.0,19,0.00,,CLR,0.00,VWS V14.01,2013-08-23 01:38:00,
2013-08-22 18:42:00,98.3,49.0,29.72,NNE,33,0.0,3.0,19,0.00,,CLR,0.00,VWS V14.01,2013-08-23 01:42:00,
2013-08-22 18:43:00,98.3,49.0,29.72,NNE,33,0.0,3.0,19,0.00,,CLR,0.00,VWS V14.01,2013-08-23 01:43:00,
2013-08-22 18:47:00,97.9,51.4,29.72,NNE,24,0.0,3.0,21,0.00,,CLR,0.00,VWS V14.01,2013-08-23 01:47:00,
2013-08-22 18:48:00,97.9,51.4,29.72,NNE,24,0.0,3.0,21,0.00,,CLR,0.00,VWS V14.01,2013-08-23 01:48:00,
2013-08-22 18:52:00,97.6,49.8,29.72,NNE,24,1.0,3.0,20,0.00,,CLR,0.00,VWS V14.01,2013-08-23 01:52:00,
2013-08-22 18:53:00,97.5,51.0,29.72,NNW,340,2.0,3.0,21,0.00,,CLR,0.00,VWS V14.01,2013-08-23 01:53:00,
2013-08-22 18:54:00,97.5,51.0,29.72,NNW,344,2.0,3.0,21,0.00,,CLR,0.00,VWS V14.01,2013-08-23 01:54:00,
2013-08-22 18:57:00,97.3,50.9,29.72,North,357,1.0,3.0,21,0.00,,CLR,0.00,VWS V14.01,2013-08-23 01:57:00,
2013-08-22 18:58:00,97.2,50.8,29.72,North,359,1.0,3.0,21,0.00,,CLR,0.00,VWS V14.01,2013-08-23 01:58:00,
2013-08-22 18:59:00,97.2,50.8,29.72,North,1,1.0,3.0,21,0.00,,CLR,0.00,VWS V14.01,2013-08-23 01:59:00,
2013-08-22 19:02:00,96.9,51.8,29.72,North,354,0.0,3.0,22,0.00,,CLR,0.00,VWS V14.01,2013-08-23 02:02:00,
2013-08-22 19:03:00,96.9,51.8,29.72,North,359,1.0,3.0,22,0.00,,CLR,0.00,VWS V14.01,2013-08-23 02:03:00,
2013-08-22 19:04:00,96.8,51.7,29.72,North,359,1.0,3.0,22,0.00,,CLR,0.00,VWS V14.01,2013-08-23 02:04:00,
2013-08-22 19:07:00,96.6,50.3,29.73,North,2,1.0,2.0,21,0.00,,CLR,0.00,VWS V14.01,2013-08-23 02:07:00,
2013-08-22 19:08:00,96.5,50.2,29.73,North,2,0.0,2.0,21,0.00,,CLR,0.00,VWS V14.01,2013-08-23 02:08:00,
2013-08-22 19:09:00,96.5,50.2,29.73,North,1,1.0,2.0,21,0.00,,CLR,0.00,VWS V14.01,2013-08-23 02:09:00,
2013-08-22 19:10:00,96.5,50.2,29.73,North,1,0.0,2.0,21,0.00,,CLR,0.00,VWS V14.01,2013-08-23 02:10:00,
2013-08-22 19:12:00,96.3,51.3,29.73,North,359,0.0,2.0,22,0.00,,CLR,0.00,VWS V14.01,2013-08-23 02:12:00,
2013-08-22 19:13:00,96.2,51.2,29.73,North,359,1.0,2.0,22,0.00,,CLR,0.00,VWS V14.01,2013-08-23 02:13:00,
2013-08-22 19:14:00,96.2,51.2,29.73,North,359,0.0,2.0,22,0.00,,CLR,0.00,VWS V14.01,2013-08-23 02:14:00,
2013-08-22 19:15:00,96.1,51.1,29.73,North,359,0.0,2.0,22,0.00,,CLR,0.00,VWS V14.01,2013-08-23 02:15:00,
2013-08-22 19:17:00,96.0,51.1,29.73,North,359,0.0,2.0,22,0.00,,CLR,0.00,VWS V14.01,2013-08-23 02:17:00,
2013-08-22 19:18:00,96.0,51.1,29.73,North,359,0.0,2.0,22,0.00,,CLR,0.00,VWS V14.01,2013-08-23 02:18:00,
2013-08-22 19:19:00,95.9,51.0,29.73,North,359,0.0,2.0,22,0.00,,CLR,0.00,VWS V14.01,2013-08-23 02:19:00,
2013-08-22 19:21:00,95.8,52.1,29.73,North,359,0.0,2.0,23,0.00,,CLR,0.00,VWS V14.01,2013-08-23 02:21:00,
2013-08-22 19:22:00,95.7,50.8,29.73,North,359,0.0,2.0,22,0.00,,CLR,0.00,VWS V14.01,2013-08-23 02:22:00,
2013-08-22 19:23:00,95.7,50.8,29.73,North,359,1.0,2.0,22,0.00,,CLR,0.00,VWS V14.01,2013-08-23 02:23:00,
2013-08-22 19:24:00,95.6,50.7,29.73,North,359,0.0,2.0,22,0.00,,CLR,0.00,VWS V14.01,2013-08-23 02:24:00,
2013-08-22 19:26:00,95.5,50.7,29.73,North,359,0.0,2.0,22,0.00,,CLR,0.00,VWS V14.01,2013-08-23 02:26:00,
2013-08-22 19:28:00,95.4,50.6,29.73,North,359,0.0,2.0,22,0.00,,CLR,0.00,VWS V14.01,2013-08-23 02:28:00,
2013-08-22 19:30:00,95.3,50.5,29.73,North,359,0.0,2.0,22,0.00,,CLR,0.00,VWS V14.01,2013-08-23 02:30:00,
2013-08-22 19:31:00,95.2,50.4,29.73,North,359,0.0,2.0,22,0.00,,CLR,0.00,VWS V14.01,2013-08-23 02:31:00,
2013-08-22 19:33:00,95.1,51.5,29.73,North,359,0.0,2.0,23,0.00,,CLR,0.00,VWS V14.01,2013-08-23 02:33:00,
2013-08-22 19:35:00,94.9,51.3,29.73,North,359,0.0,2.0,23,0.00,,CLR,0.00,VWS V14.01,2013-08-23 02:35:00,
2013-08-22 19:36:00,94.8,51.3,29.74,North,359,0.0,2.0,23,0.00,,CLR,0.00,VWS V14.01,2013-08-23 02:36:00,
2013-08-22 19:38:00,94.6,51.1,29.74,North,354,0.0,1.0,23,0.00,,CLR,0.00,VWS V14.01,2013-08-23 02:38:00,
2013-08-22 19:40:00,94.4,50.9,29.74,North,354,0.0,1.0,23,0.00,,CLR,0.00,VWS V14.01,2013-08-23 02:40:00,
2013-08-22 19:41:00,94.2,51.9,29.74,North,354,0.0,1.0,24,0.00,,CLR,0.00,VWS V14.01,2013-08-23 02:41:00,
2013-08-22 19:43:00,93.9,51.7,29.74,North,356,1.0,1.0,24,0.00,,CLR,0.00,VWS V14.01,2013-08-23 02:43:00,
2013-08-22 19:45:00,93.7,51.5,29.74,North,0,0.0,1.0,24,0.00,,CLR,0.00,VWS V14.01,2013-08-23 02:45:00,
2013-08-22 19:46:00,93.6,51.4,29.74,North,0,0.0,1.0,24,0.00,,CLR,0.00,VWS V14.01,2013-08-23 02:46:00,
2013-08-22 19:48:00,93.4,51.2,29.74,North,0,1.0,1.0,24,0.00,,CLR,0.00,VWS V14.01,2013-08-23 02:48:00,
2013-08-22 19:50:00,93.3,51.2,29.74,North,0,0.0,1.0,24,0.00,,CLR,0.00,VWS V14.01,2013-08-23 02:50:00,
2013-08-22 19:51:00,93.1,52.1,29.74,North,1,0.0,1.0,25,0.00,,CLR,0.00,VWS V14.01,2013-08-23 02:51:00,
2013-08-22 19:52:00,93.1,52.1,29.74,North,1,0.0,1.0,25,0.00,,CLR,0.00,VWS V14.01,2013-08-23 02:52:00,
2013-08-22 19:53:00,92.9,51.9,29.74,North,1,0.0,1.0,25,0.00,,CLR,0.00,VWS V14.01,2013-08-23 02:53:00,
2013-08-22 19:55:00,92.8,51.8,29.74,North,2,0.0,1.0,25,0.00,,CLR,0.00,VWS V14.01,2013-08-23 02:55:00,
2013-08-22 19:56:00,92.7,51.8,29.74,North,3,0.0,1.0,25,0.00,,CLR,0.00,VWS V14.01,2013-08-23 02:56:00,
2013-08-22 19:57:00,92.6,51.7,29.74,North,3,0.0,1.0,25,0.00,,CLR,0.00,VWS V14.01,2013-08-23 02:57:00,
2013-08-22 19:58:00,92.5,51.6,29.74,North,3,0.0,1.0,25,0.00,,CLR,0.00,VWS V14.01,2013-08-23 02:58:00,
2013-08-22 19:59:00,92.5,51.6,29.74,North,3,0.0,1.0,25,0.00,,CLR,0.00,VWS V14.01,2013-08-23 02:59:00,
2013-08-22 20:00:00,92.5,51.6,29.74,North,3,0.0,1.0,25,0.00,,CLR,0.00,VWS V14.01,2013-08-23 03:00:00,
2013-08-22 20:01:00,92.4,51.5,29.74,North,3,0.0,1.0,25,0.00,,CLR,0.00,VWS V14.01,2013-08-23 03:01:00,
2013-08-22 20:02:00,92.5,51.6,29.74,North,3,0.0,1.0,25,0.00,,CLR,0.00,VWS V14.01,2013-08-23 03:02:00,
2013-08-22 20:03:00,92.4,51.5,29.74,North,3,0.0,1.0,25,0.00,,CLR,0.00,VWS V14.01,2013-08-23 03:03:00,
2013-08-22 20:04:00,92.4,51.5,29.74,North,3,0.0,1.0,25,0.00,,CLR,0.00,VWS V14.01,2013-08-23 03:04:00,
2013-08-22 20:05:00,92.4,51.5,29.74,North,3,0.0,1.0,25,0.00,,CLR,0.00,VWS V14.01,2013-08-23 03:05:00,
2013-08-22 20:06:00,92.4,51.5,29.74,North,3,0.0,1.0,25,0.00,,CLR,0.00,VWS V14.01,2013-08-23 03:06:00,
2013-08-22 20:07:00,92.3,51.4,29.75,North,3,0.0,0.0,25,0.00,,CLR,0.00,VWS V14.01,2013-08-23 03:07:00,
2013-08-22 20:09:00,92.3,51.4,29.75,North,3,0.0,0.0,25,0.00,,CLR,0.00,VWS V14.01,2013-08-23 03:09:00,
2013-08-22 20:10:00,92.2,51.3,29.75,North,3,0.0,0.0,25,0.00,,CLR,0.00,VWS V14.01,2013-08-23 03:10:00,
2013-08-22 20:11:00,92.2,51.3,29.75,North,3,0.0,0.0,25,0.00,,CLR,0.00,VWS V14.01,2013-08-23 03:11:00,
2013-08-22 20:12:00,92.1,51.3,29.75,North,3,0.0,0.0,25,0.00,,CLR,0.00,VWS V14.01,2013-08-23 03:12:00,
2013-08-22 20:14:00,92.1,51.3,29.75,North,3,0.0,0.0,25,0.00,,CLR,0.00,VWS V14.01,2013-08-23 03:14:00,
2013-08-22 20:15:00,92.1,51.3,29.75,North,3,0.0,0.0,25,0.00,,CLR,0.00,VWS V14.01,2013-08-23 03:15:00,
2013-08-22 20:16:00,92.0,51.2,29.75,North,3,0.0,0.0,25,0.00,,CLR,0.00,VWS V14.01,2013-08-23 03:16:00,
2013-08-22 20:17:00,92.0,52.2,29.75,North,3,0.0,0.0,26,0.00,,CLR,0.00,VWS V14.01,2013-08-23 03:17:00,
2013-08-22 20:19:00,91.9,52.2,29.75,North,3,0.0,0.0,26,0.00,,CLR,0.00,VWS V14.01,2013-08-23 03:19:00,
2013-08-22 20:21:00,91.8,54.1,29.75,North,3,0.0,0.0,28,0.00,,CLR,0.00,VWS V14.01,2013-08-23 03:21:00,
2013-08-22 20:23:00,91.6,53.9,29.75,North,3,0.0,1.0,28,0.00,,CLR,0.00,VWS V14.01,2013-08-23 03:23:00,
2013-08-22 20:24:00,91.5,54.8,29.75,North,3,1.0,2.0,29,0.00,,CLR,0.00,VWS V14.01,2013-08-23 03:24:00,
2013-08-22 20:26:00,91.1,54.5,29.75,North,1,1.0,2.0,29,0.00,,CLR,0.00,VWS V14.01,2013-08-23 03:26:00,
2013-08-22 20:28:00,90.8,53.2,29.75,NNW,340,2.0,2.0,28,0.00,,CLR,0.00,VWS V14.01,2013-08-23 03:28:00,
2013-08-22 20:29:00,90.8,53.2,29.75,NW,322,2.0,3.0,28,0.00,,CLR,0.00,VWS V14.01,2013-08-23 03:29:00,
2013-08-22 20:31:00,90.6,54.0,29.75,NW,309,0.0,3.0,29,0.00,,CLR,0.00,VWS V14.01,2013-08-23 03:31:00,
2013-08-22 20:33:00,90.4,53.8,29.75,NW,307,1.0,3.0,29,0.00,,CLR,0.00,VWS V14.01,2013-08-23 03:33:00,
2013-08-22 20:34:00,90.3,53.8,29.75,NW,306,1.0,3.0,29,0.00,,CLR,0.00,VWS V14.01,2013-08-23 03:34:00,
2013-08-22 20:36:00,90.2,53.7,29.76,NNW,328,0.0,3.0,29,0.00,,CLR,0.00,VWS V14.01,2013-08-23 03:36:00,
2013-08-22 20:38:00,90.0,54.4,29.76,NNW,330,0.0,1.0,30,0.00,,CLR,0.00,VWS V14.01,2013-08-23 03:38:00,
2013-08-22 20:39:00,90.0,53.5,29.76,NW,326,1.0,2.0,29,0.00,,CLR,0.00,VWS V14.01,2013-08-23 03:39:00,
2013-08-22 20:41:00,89.9,53.4,29.76,NW,323,1.0,2.0,29,0.00,,CLR,0.00,VWS V14.01,2013-08-23 03:41:00,
2013-08-22 20:43:00,89.9,53.4,29.76,NW,325,0.0,2.0,29,0.00,,CLR,0.00,VWS V14.01,2013-08-23 03:43:00,
2013-08-22 20:44:00,89.8,53.3,29.76,NW,325,0.0,2.0,29,0.00,,CLR,0.00,VWS V14.01,2013-08-23 03:44:00,
2013-08-22 20:46:00,89.8,54.3,29.76,NW,325,0.0,2.0,30,0.00,,CLR,0.00,VWS V14.01,2013-08-23 03:46:00,
2013-08-22 20:48:00,89.7,53.2,29.76,NW,325,1.0,2.0,29,0.00,,CLR,0.00,VWS V14.01,2013-08-23 03:48:00,
2013-08-22 20:49:00,89.7,53.2,29.76,NW,325,0.0,2.0,29,0.00,,CLR,0.00,VWS V14.01,2013-08-23 03:49:00,
2013-08-22 20:50:00,89.6,54.1,29.76,NW,325,1.0,2.0,30,0.00,,CLR,0.00,VWS V14.01,2013-08-23 03:50:00,
2013-08-22 20:51:00,89.6,54.1,29.77,NW,325,0.0,2.0,30,0.00,,CLR,0.00,VWS V14.01,2013-08-23 03:51:00,
2013-08-22 20:52:00,89.5,54.0,29.77,NW,325,1.0,2.0,30,0.00,,CLR,0.00,VWS V14.01,2013-08-23 03:52:00,
2013-08-22 20:53:00,89.5,54.0,29.77,NW,326,0.0,2.0,30,0.00,,CLR,0.00,VWS V14.01,2013-08-23 03:53:00,
2013-08-22 20:54:00,89.4,53.9,29.77,NW,325,2.0,2.0,30,0.00,,CLR,0.00,VWS V14.01,2013-08-23 03:54:00,
2013-08-22 20:55:00,89.3,53.8,29.77,NW,325,0.0,2.0,30,0.00,,CLR,0.00,VWS V14.01,2013-08-23 03:55:00,
2013-08-22 20:56:00,89.3,52.9,29.77,NW,318,1.0,3.0,29,0.00,,CLR,0.00,VWS V14.01,2013-08-23 03:56:00,
2013-08-22 20:57:00,89.2,52.8,29.77,NW,318,1.0,3.0,29,0.00,,CLR,0.00,VWS V14.01,2013-08-23 03:57:00,
2013-08-22 20:58:00,89.2,52.8,29.77,NW,318,0.0,3.0,29,0.00,,CLR,0.00,VWS V14.01,2013-08-23 03:58:00,
2013-08-22 20:59:00,89.1,53.7,29.77,NW,318,1.0,3.0,30,0.00,,CLR,0.00,VWS V14.01,2013-08-23 03:59:00,
2013-08-22 21:00:00,89.1,53.7,29.77,NW,318,0.0,3.0,30,0.00,,CLR,0.00,VWS V14.01,2013-08-23 04:00:00,
2013-08-22 21:01:00,89.0,53.6,29.77,NW,318,0.0,3.0,30,0.00,,CLR,0.00,VWS V14.01,2013-08-23 04:01:00,
2013-08-22 21:06:00,88.8,54.3,29.77,NW,318,0.0,3.0,31,0.00,,CLR,0.00,VWS V14.01,2013-08-23 04:06:00,
2013-08-22 21:11:00,88.6,54.1,29.77,NW,318,0.0,0.0,31,0.00,,CLR,0.00,VWS V14.01,2013-08-23 04:11:00,
2013-08-22 21:16:00,88.3,54.7,29.77,NW,313,0.0,1.0,32,0.00,,CLR,0.00,VWS V14.01,2013-08-23 04:16:00,
2013-08-22 21:21:00,88.2,55.5,29.78,NW,314,0.0,2.0,33,0.00,,CLR,0.00,VWS V14.01,2013-08-23 04:21:00,
2013-08-22 21:22:00,88.2,55.5,29.78,NW,311,0.0,2.0,33,0.00,,CLR,0.00,VWS V14.01,2013-08-23 04:22:00,
2013-08-22 21:26:00,88.0,55.3,29.78,NW,311,3.0,3.0,33,0.00,,CLR,0.00,VWS V14.01,2013-08-23 04:26:00,
2013-08-22 21:27:00,88.1,54.6,29.78,NW,318,3.0,4.0,32,0.00,,CLR,0.00,VWS V14.01,2013-08-23 04:27:00,
2013-08-22 21:31:00,88.3,53.9,29.78,NW,311,3.0,5.0,31,0.00,,CLR,0.00,VWS V14.01,2013-08-23 04:31:00,
2013-08-22 21:32:00,88.3,53.9,29.78,NW,311,1.0,5.0,31,0.00,,CLR,0.00,VWS V14.01,2013-08-23 04:32:00,
2013-08-22 21:33:00,88.2,53.8,29.78,WNW,291,2.0,5.0,31,0.00,,CLR,0.00,VWS V14.01,2013-08-23 04:33:00,
2013-08-22 21:36:00,87.7,51.5,29.79,WNW,282,5.0,7.0,29,0.00,,CLR,0.00,VWS V14.01,2013-08-23 04:36:00,
2013-08-22 21:37:00,87.5,51.4,29.79,WNW,303,3.0,6.0,29,0.00,,CLR,0.00,VWS V14.01,2013-08-23 04:37:00,
2013-08-22 21:38:00,87.4,51.3,29.79,NW,319,1.0,7.0,29,0.00,,CLR,0.00,VWS V14.01,2013-08-23 04:38:00,
2013-08-22 21:41:00,86.9,51.8,29.79,NW,310,6.0,10.0,30,0.00,,CLR,0.00,VWS V14.01,2013-08-23 04:41:00,
2013-08-22 21:42:00,86.8,51.7,29.79,WNW,299,4.0,10.0,30,0.00,,CLR,0.00,VWS V14.01,2013-08-23 04:42:00,
2013-08-22 21:43:00,86.7,51.6,29.79,NW,326,2.0,10.0,30,0.00,,CLR,0.00,VWS V14.01,2013-08-23 04:43:00,
2013-08-22 21:46:00,86.2,51.2,29.79,NW,319,4.0,10.0,30,0.00,,CLR,0.00,VWS V14.01,2013-08-23 04:46:00,
2013-08-22 21:47:00,86.2,50.2,29.79,NW,304,6.0,10.0,29,0.00,,CLR,0.00,VWS V14.01,2013-08-23 04:47:00,
2013-08-22 21:48:00,86.1,50.2,29.79,North,359,2.0,10.0,29,0.00,,CLR,0.00,VWS V14.01,2013-08-23 04:48:00,
2013-08-22 21:51:00,85.5,49.7,29.79,NW,304,6.0,10.0,29,0.00,,CLR,0.00,VWS V14.01,2013-08-23 04:51:00,
2013-08-22 21:52:00,85.4,49.6,29.79,NNW,339,6.0,10.0,29,0.00,,CLR,0.00,VWS V14.01,2013-08-23 04:52:00,
2013-08-22 21:53:00,85.3,49.5,29.79,NNW,329,6.0,11.0,29,0.00,,CLR,0.00,VWS V14.01,2013-08-23 04:53:00,
2013-08-22 21:56:00,84.8,50.0,29.79,NW,326,4.0,11.0,30,0.00,,CLR,0.00,VWS V14.01,2013-08-23 04:56:00,
2013-08-22 21:57:00,84.8,50.0,29.79,NNW,327,3.0,11.0,30,0.00,,CLR,0.00,VWS V14.01,2013-08-23 04:57:00,
2013-08-22 21:58:00,84.7,49.9,29.79,NW,323,2.0,11.0,30,0.00,,CLR,0.00,VWS V14.01,2013-08-23 04:58:00,
2013-08-22 22:01:00,84.4,50.5,29.79,NW,318,2.0,11.0,31,0.00,,CLR,0.00,VWS V14.01,2013-08-23 05:01:00,
2013-08-22 22:02:00,84.4,50.5,29.79,WNW,293,1.0,11.0,31,0.00,,CLR,0.00,VWS V14.01,2013-08-23 05:02:00,
2013-08-22 22:03:00,84.3,50.4,29.79,WNW,293,1.0,11.0,31,0.00,,CLR,0.00,VWS V14.01,2013-08-23 05:03:00,
2013-08-22 22:07:00,83.9,50.9,29.79,NW,326,2.0,11.0,32,0.00,,CLR,0.00,VWS V14.01,2013-08-23 05:07:00,
2013-08-22 22:08:00,83.8,50.8,29.79,NNW,328,0.0,3.0,32,0.00,,CLR,0.00,VWS V14.01,2013-08-23 05:08:00,
2013-08-22 22:12:00,83.6,48.9,29.79,NW,323,4.0,7.0,30,0.00,,CLR,0.00,VWS V14.01,2013-08-23 05:12:00,
2013-08-22 22:13:00,83.8,49.1,29.79,NW,320,3.0,7.0,30,0.00,,CLR,0.00,VWS V14.01,2013-08-23 05:13:00,
2013-08-22 22:14:00,84.0,49.3,29.79,NW,323,2.0,7.0,30,0.00,,CLR,0.00,VWS V14.01,2013-08-23 05:14:00,
2013-08-22 22:17:00,84.4,48.7,29.79,NW,310,1.0,7.0,29,0.00,,CLR,0.00,VWS V14.01,2013-08-23 05:17:00,
2013-08-22 22:18:00,84.5,48.8,29.79,NW,324,3.0,7.0,29,0.00,,CLR,0.00,VWS V14.01,2013-08-23 05:18:00,
2013-08-22 22:19:00,84.5,48.8,29.79,NNW,328,2.0,7.0,29,0.00,,CLR,0.00,VWS V14.01,2013-08-23 05:19:00,
2013-08-22 22:22:00,84.5,48.8,29.80,NW,313,2.0,7.0,29,0.00,,CLR,0.00,VWS V14.01,2013-08-23 05:22:00,
2013-08-22 22:23:00,84.4,48.7,29.80,NW,325,3.0,7.0,29,0.00,,CLR,0.00,VWS V14.01,2013-08-23 05:23:00,
2013-08-22 22:24:00,84.4,48.7,29.80,NW,326,3.0,7.0,29,0.00,,CLR,0.00,VWS V14.01,2013-08-23 05:24:00,
2013-08-22 22:27:00,84.3,47.7,29.80,NNW,332,3.0,7.0,28,0.00,,CLR,0.00,VWS V14.01,2013-08-23 05:27:00,
2013-08-22 22:28:00,84.3,47.7,29.80,NNW,347,4.0,7.0,28,0.00,,CLR,0.00,VWS V14.01,2013-08-23 05:28:00,
2013-08-22 22:29:00,84.1,47.5,29.80,NNW,338,0.0,7.0,28,0.00,,CLR,0.00,VWS V14.01,2013-08-23 05:29:00,
2013-08-22 22:33:00,83.6,47.1,29.80,NNW,345,3.0,7.0,28,0.00,,CLR,0.00,VWS V14.01,2013-08-23 05:33:00,
2013-08-22 22:34:00,83.4,46.9,29.80,WNW,290,6.0,7.0,28,0.00,,CLR,0.00,VWS V14.01,2013-08-23 05:34:00,
2013-08-22 22:38:00,82.9,46.5,29.80,NW,324,4.0,5.0,28,0.00,,CLR,0.00,VWS V14.01,2013-08-23 05:38:00,
2013-08-22 22:39:00,82.8,46.4,29.80,NW,319,4.0,6.0,28,0.00,,CLR,0.00,VWS V14.01,2013-08-23 05:39:00,
2013-08-22 22:43:00,82.5,46.1,29.80,NNW,332,4.0,9.0,28,0.00,,CLR,0.00,VWS V14.01,2013-08-23 05:43:00,
2013-08-22 22:44:00,82.4,45.1,29.80,NW,316,4.0,9.0,27,0.00,,CLR,0.00,VWS V14.01,2013-08-23 05:44:00,
2013-08-22 22:48:00,82.1,44.8,29.80,NW,309,4.0,9.0,27,0.00,,CLR,0.00,VWS V14.01,2013-08-23 05:48:00,
2013-08-22 22:49:00,82.1,44.8,29.80,NNW,335,3.0,9.0,27,0.00,,CLR,0.00,VWS V14.01,2013-08-23 05:49:00,
2013-08-22 22:53:00,81.8,45.5,29.81,NNW,335,1.0,9.0,28,0.00,,CLR,0.00,VWS V14.01,2013-08-23 05:53:00,
2013-08-22 22:54:00,81.8,45.5,29.81,NNW,331,0.0,9.0,28,0.00,,CLR,0.00,VWS V14.01,2013-08-23 05:54:00,
2013-08-22 22:58:00,81.5,46.2,29.81,NW,323,1.0,9.0,29,0.00,,CLR,0.00,VWS V14.01,2013-08-23 05:58:00,
2013-08-22 22:59:00,81.5,46.2,29.81,NW,323,3.0,9.0,29,0.00,,CLR,0.00,VWS V14.01,2013-08-23 05:59:00,
2013-08-22 23:00:00,81.4,46.1,29.81,NW,316,1.0,9.0,29,0.00,,CLR,0.00,VWS V14.01,2013-08-23 06:00:00,
2013-08-22 23:03:00,81.1,45.9,29.81,NNW,333,3.0,9.0,29,0.00,,CLR,0.00,VWS V14.01,2013-08-23 06:03:00,
2013-08-22 23:04:00,81.1,44.9,29.81,NNW,329,4.0,9.0,28,0.00,,CLR,0.00,VWS V14.01,2013-08-23 06:04:00,
2013-08-22 23:05:00,81.0,45.8,29.81,NW,323,4.0,9.0,29,0.00,,CLR,0.00,VWS V14.01,2013-08-23 06:05:00,
2013-08-22 23:08:00,80.8,45.6,29.81,WNW,300,5.0,6.0,29,0.00,,CLR,0.00,VWS V14.01,2013-08-23 06:08:00,
2013-08-22 23:09:00,80.8,45.6,29.81,NW,324,5.0,6.0,29,0.00,,CLR,0.00,VWS V14.01,2013-08-23 06:09:00,
2013-08-22 23:10:00,80.7,45.5,29.81,NNW,327,4.0,9.0,29,0.00,,CLR,0.00,VWS V14.01,2013-08-23 06:10:00,
2013-08-22 23:13:00,80.5,46.2,29.81,WNW,293,2.0,9.0,30,0.00,,CLR,0.00,VWS V14.01,2013-08-23 06:13:00,
2013-08-22 23:14:00,80.4,46.2,29.81,WNW,286,4.0,9.0,30,0.00,,CLR,0.00,VWS V14.01,2013-08-23 06:14:00,
2013-08-22 23:15:00,80.3,46.1,29.81,WNW,297,3.0,9.0,30,0.00,,CLR,0.00,VWS V14.01,2013-08-23 06:15:00,
2013-08-22 23:19:00,80.1,45.9,29.81,NW,311,3.0,9.0,30,0.00,,CLR,0.00,VWS V14.01,2013-08-23 06:19:00,
2013-08-22 23:21:00,80.0,45.8,29.81,NW,317,3.0,9.0,30,0.00,,CLR,0.00,VWS V14.01,2013-08-23 06:21:00,
2013-08-22 23:24:00,80.4,46.2,29.82,NW,313,4.0,9.0,30,0.00,,CLR,0.00,VWS V14.01,2013-08-23 06:24:00,
2013-08-22 23:25:00,80.7,45.5,29.82,NW,306,4.0,9.0,29,0.00,,CLR,0.00,VWS V14.01,2013-08-23 06:25:00,
2013-08-22 23:26:00,80.8,45.6,29.82,NW,318,2.0,9.0,29,0.00,,CLR,0.00,VWS V14.01,2013-08-23 06:26:00,
2013-08-22 23:29:00,81.2,46.0,29.82,NW,319,2.0,9.0,29,0.00,,CLR,0.00,VWS V14.01,2013-08-23 06:29:00,
2013-08-22 23:30:00,81.3,45.1,29.82,NW,311,3.0,9.0,28,0.00,,CLR,0.00,VWS V14.01,2013-08-23 06:30:00,
2013-08-22 23:31:00,81.4,45.2,29.82,NW,315,3.0,9.0,28,0.00,,CLR,0.00,VWS V14.01,2013-08-23 06:31:00,
2013-08-22 23:34:00,81.4,45.2,29.82,WNW,288,3.0,9.0,28,0.00,,CLR,0.00,VWS V14.01,2013-08-23 06:34:00,
2013-08-22 23:35:00,81.5,45.3,29.82,NW,325,2.0,9.0,28,0.00,,CLR,0.00,VWS V14.01,2013-08-23 06:35:00,
2013-08-22 23:36:00,81.4,45.2,29.82,NW,325,1.0,9.0,28,0.00,,CLR,0.00,VWS V14.01,2013-08-23 06:36:00,
2013-08-22 23:39:00,81.1,44.9,29.82,WNW,285,1.0,5.0,28,0.00,,CLR,0.00,VWS V14.01,2013-08-23 06:39:00,
2013-08-22 23:40:00,81.0,45.8,29.82,WNW,285,2.0,5.0,29,0.00,,CLR,0.00,VWS V14.01,2013-08-23 06:40:00,
2013-08-22 23:41:00,80.9,45.7,29.82,WNW,286,2.0,5.0,29,0.00,,CLR,0.00,VWS V14.01,2013-08-23 06:41:00,
2013-08-22 23:44:00,80.3,46.1,29.82,WNW,293,1.0,5.0,30,0.00,,CLR,0.00,VWS V14.01,2013-08-23 06:44:00,
2013-08-22 23:45:00,80.2,46.0,29.82,WNW,294,1.0,5.0,30,0.00,,CLR,0.00,VWS V14.01,2013-08-23 06:45:00,
2013-08-22 23:46:00,80.2,46.0,29.82,WNW,291,2.0,5.0,30,0.00,,CLR,0.00,VWS V14.01,2013-08-23 06:46:00,
2013-08-22 23:49:00,79.6,46.3,29.82,NW,304,3.0,5.0,31,0.00,,CLR,0.00,VWS V14.01,2013-08-23 06:49:00,
2013-08-22 23:50:00,79.5,46.2,29.82,WNW,297,1.0,5.0,31,0.00,,CLR,0.00,VWS V14.01,2013-08-23 06:50:00,
2013-08-22 23:51:00,79.3,46.1,29.82,NW,316,3.0,5.0,31,0.00,,CLR,0.00,VWS V14.01,2013-08-23 06:51:00,
2013-08-22 23:54:00,79.0,46.7,29.82,NW,304,4.0,5.0,32,0.00,,CLR,0.00,VWS V14.01,2013-08-23 06:54:00,
2013-08-22 23:55:00,79.0,46.7,29.82,NW,319,3.0,5.0,32,0.00,,CLR,0.00,VWS V14.01,2013-08-23 06:55:00,
2013-08-22 23:56:00,78.7,45.6,29.82,NW,305,0.0,5.0,31,0.00,,CLR,0.00,VWS V14.01,2013-08-23 06:56:00,
2013-08-22 23:59:00,78.4,46.1,29.82,WNW,299,0.0,5.0,32,0.00,,CLR,0.00,VWS V14.01,2013-08-23 06:59:00,